Time,TemperatureF,DewpointF,PressureIn,WindDirection,WindDirectionDegrees,WindSpeedMPH,WindSpeedGustMPH,Humidity,HourlyPrecipIn,Conditions,Clouds,dailyrainin,SoftwareType,DateUTC
2013-05-26 00:01:00,51.3,32.8,30.14,NNW,333,0.0,2.0,49,0.00,,---,0.00,VWS V14.01,2013-05-26 04:01:00,
2013-05-26 00:06:00,51.0,33.0,30.15,NNW,333,0.0,0.0,50,0.00,,---,0.00,VWS V14.01,2013-05-26 04:06:00,
2013-05-26 00:11:00,50.8,33.3,30.15,NNW,333,0.0,0.0,51,0.00,,---,0.00,VWS V14.01,2013-05-26 04:11:00,
2013-05-26 00:16:00,50.5,32.6,30.15,NNW,333,0.0,0.0,50,0.00,,---,0.00,VWS V14.01,2013-05-26 04:16:00,
2013-05-26 00:21:00,50.4,33.0,30.15,NNW,333,0.0,0.0,51,0.00,,---,0.00,VWS V14.01,2013-05-26 04:21:00,
2013-05-26 00:22:00,50.2,32.8,30.15,NNW,333,0.0,0.0,51,0.00,,---,0.00,VWS V14.01,2013-05-26 04:22:00,
2013-05-26 00:26:00,49.9,33.0,30.15,NNW,333,0.0,0.0,52,0.00,,---,0.00,VWS V14.01,2013-05-26 04:26:00,
2013-05-26 00:27:00,49.9,33.0,30.15,NNW,333,0.0,0.0,52,0.00,,---,0.00,VWS V14.01,2013-05-26 04:27:00,
2013-05-26 00:31:00,49.6,32.7,30.15,NNW,333,0.0,0.0,52,0.00,,---,0.00,VWS V14.01,2013-05-26 04:31:00,
2013-05-26 00:33:00,49.5,33.1,30.15,NNW,333,0.0,0.0,53,0.00,,---,0.00,VWS V14.01,2013-05-26 04:33:00,
2013-05-26 00:36:00,49.4,33.0,30.15,NNW,333,0.0,1.0,53,0.00,,---,0.00,VWS V14.01,2013-05-26 04:36:00,
2013-05-26 00:38:00,49.2,32.8,30.15,West,265,0.0,4.0,53,0.00,,---,0.00,VWS V14.01,2013-05-26 04:38:00,
2013-05-26 00:41:00,48.9,33.0,30.15,West,266,2.0,2.0,54,0.00,,---,0.00,VWS V14.01,2013-05-26 04:41:00,
2013-05-26 00:43:00,48.8,33.4,30.15,West,266,1.0,2.0,55,0.00,,---,0.00,VWS V14.01,2013-05-26 04:43:00,
2013-05-26 00:46:00,48.6,33.2,30.15,West,266,0.0,0.0,55,0.00,,---,0.00,VWS V14.01,2013-05-26 04:46:00,
2013-05-26 00:48:00,48.5,33.1,30.15,West,265,0.0,0.0,55,0.00,,---,0.00,VWS V14.01,2013-05-26 04:48:00,
2013-05-26 00:51:00,48.2,33.3,30.15,West,265,0.0,0.0,56,0.00,,---,0.00,VWS V14.01,2013-05-26 04:51:00,
2013-05-26 00:53:00,48.2,33.3,30.15,West,265,0.0,0.0,56,0.00,,---,0.00,VWS V14.01,2013-05-26 04:53:00,
2013-05-26 00:56:00,47.9,33.0,30.15,West,266,1.0,1.0,56,0.00,,---,0.00,VWS V14.01,2013-05-26 04:56:00,
2013-05-26 00:58:00,47.7,32.8,30.15,West,266,0.0,0.0,56,0.00,,---,0.00,VWS V14.01,2013-05-26 04:58:00,
2013-05-26 01:01:00,47.6,33.1,30.15,West,266,0.0,1.0,57,0.00,,---,0.00,VWS V14.01,2013-05-26 05:01:00,
2013-05-26 01:02:00,47.6,33.1,30.15,West,265,0.0,0.0,57,0.00,,---,0.00,VWS V14.01,2013-05-26 05:02:00,
2013-05-26 01:03:00,47.4,33.0,30.15,West,266,0.0,0.0,57,0.00,,---,0.00,VWS V14.01,2013-05-26 05:03:00,
2013-05-26 01:06:00,47.3,32.8,30.15,West,265,0.0,1.0,57,0.00,,---,0.00,VWS V14.01,2013-05-26 05:06:00,
2013-05-26 01:07:00,47.1,33.1,30.15,West,265,0.0,3.0,58,0.00,,---,0.00,VWS V14.01,2013-05-26 05:07:00,
2013-05-26 01:08:00,47.1,33.1,30.15,West,265,0.0,0.0,58,0.00,,---,0.00,VWS V14.01,2013-05-26 05:08:00,
2013-05-26 01:11:00,46.8,33.2,30.15,West,266,0.0,1.0,59,0.00,,---,0.00,VWS V14.01,2013-05-26 05:11:00,
2013-05-26 01:12:00,46.8,33.2,30.15,West,266,0.0,1.0,59,0.00,,---,0.00,VWS V14.01,2013-05-26 05:12:00,
2013-05-26 01:13:00,46.7,33.2,30.15,West,266,0.0,0.0,59,0.00,,---,0.00,VWS V14.01,2013-05-26 05:13:00,
2013-05-26 01:16:00,46.5,33.4,30.15,West,265,0.0,1.0,60,0.00,,---,0.00,VWS V14.01,2013-05-26 05:16:00,
2013-05-26 01:17:00,46.5,33.4,30.15,West,265,0.0,1.0,60,0.00,,---,0.00,VWS V14.01,2013-05-26 05:17:00,
2013-05-26 01:18:00,46.4,33.3,30.15,West,271,0.0,0.0,60,0.00,,---,0.00,VWS V14.01,2013-05-26 05:18:00,
2013-05-26 01:21:00,46.2,33.5,30.15,West,271,0.0,1.0,61,0.00,,---,0.00,VWS V14.01,2013-05-26 05:21:00,
2013-05-26 01:22:00,46.2,33.5,30.15,West,271,0.0,1.0,61,0.00,,---,0.00,VWS V14.01,2013-05-26 05:22:00,
2013-05-26 01:23:00,46.1,33.4,30.15,West,270,2.0,2.0,61,0.00,,---,0.00,VWS V14.01,2013-05-26 05:23:00,
2013-05-26 01:26:00,46.0,33.7,30.15,West,270,1.0,1.0,62,0.00,,---,0.00,VWS V14.01,2013-05-26 05:26:00,
2013-05-26 01:27:00,46.0,33.7,30.15,West,270,2.0,2.0,62,0.00,,---,0.00,VWS V14.01,2013-05-26 05:27:00,
2013-05-26 01:28:00,46.0,33.7,30.15,West,270,0.0,0.0,62,0.00,,---,0.00,VWS V14.01,2013-05-26 05:28:00,
2013-05-26 01:32:00,45.8,33.5,30.15,West,263,2.0,4.0,62,0.00,,---,0.00,VWS V14.01,2013-05-26 05:32:00,
2013-05-26 01:33:00,45.8,33.5,30.15,WSW,253,1.0,1.0,62,0.00,,---,0.00,VWS V14.01,2013-05-26 05:33:00,
2013-05-26 01:37:00,45.8,33.9,30.15,WSW,245,2.0,4.0,63,0.00,,---,0.00,VWS V14.01,2013-05-26 05:37:00,
2013-05-26 01:38:00,45.8,33.9,30.15,WSW,245,2.0,2.0,63,0.00,,---,0.00,VWS V14.01,2013-05-26 05:38:00,
2013-05-26 01:42:00,46.0,34.1,30.15,West,264,1.0,4.0,63,0.00,,---,0.00,VWS V14.01,2013-05-26 05:42:00,
2013-05-26 01:43:00,46.0,34.1,30.15,WSW,247,0.0,2.0,63,0.00,,---,0.00,VWS V14.01,2013-05-26 05:43:00,
2013-05-26 01:47:00,46.0,34.1,30.15,WSW,247,0.0,4.0,63,0.00,,---,0.00,VWS V14.01,2013-05-26 05:47:00,
2013-05-26 01:48:00,46.0,34.1,30.15,West,271,1.0,5.0,63,0.00,,---,0.00,VWS V14.01,2013-05-26 05:48:00,
2013-05-26 01:52:00,46.0,34.1,30.15,SW,229,4.0,5.0,63,0.00,,---,0.00,VWS V14.01,2013-05-26 05:52:00,
2013-05-26 01:53:00,46.0,34.1,30.15,SW,234,2.0,9.0,63,0.00,,---,0.00,VWS V14.01,2013-05-26 05:53:00,
2013-05-26 01:57:00,46.1,33.8,30.15,SW,234,0.0,0.0,62,0.00,,---,0.00,VWS V14.01,2013-05-26 05:57:00,
2013-05-26 01:58:00,46.1,33.8,30.15,SW,234,0.0,0.0,62,0.00,,---,0.00,VWS V14.01,2013-05-26 05:58:00,
2013-05-26 02:02:00,46.1,33.8,30.14,WSW,258,0.0,0.0,62,0.00,,---,0.00,VWS V14.01,2013-05-26 06:02:00,
2013-05-26 02:03:00,46.2,33.9,30.14,SSW,194,2.0,2.0,62,0.00,,---,0.00,VWS V14.01,2013-05-26 06:03:00,
2013-05-26 02:07:00,46.2,33.9,30.14,SSW,209,0.0,0.0,62,0.00,,---,0.00,VWS V14.01,2013-05-26 06:07:00,
2013-05-26 02:08:00,46.2,33.9,30.14,WSW,248,2.0,4.0,62,0.00,,---,0.00,VWS V14.01,2013-05-26 06:08:00,
2013-05-26 02:12:00,46.4,34.1,30.14,NW,306,0.0,0.0,62,0.00,,---,0.00,VWS V14.01,2013-05-26 06:12:00,
2013-05-26 02:13:00,46.4,34.1,30.14,WNW,290,2.0,2.0,62,0.00,,---,0.00,VWS V14.01,2013-05-26 06:13:00,
2013-05-26 02:17:00,46.4,34.1,30.15,WSW,246,1.0,4.0,62,0.00,,---,0.00,VWS V14.01,2013-05-26 06:17:00,
2013-05-26 02:18:00,46.4,34.1,30.15,WSW,240,4.0,5.0,62,0.00,,---,0.00,VWS V14.01,2013-05-26 06:18:00,
2013-05-26 02:19:00,46.4,34.1,30.15,WSW,240,2.0,5.0,62,0.00,,---,0.00,VWS V14.01,2013-05-26 06:19:00,
2013-05-26 02:22:00,46.4,33.7,30.15,WSW,249,4.0,4.0,61,0.00,,---,0.00,VWS V14.01,2013-05-26 06:22:00,
2013-05-26 02:23:00,46.5,33.8,30.15,WSW,257,0.0,3.0,61,0.00,,---,0.00,VWS V14.01,2013-05-26 06:23:00,
2013-05-26 02:24:00,46.5,33.8,30.15,WSW,257,0.0,3.0,61,0.00,,---,0.00,VWS V14.01,2013-05-26 06:24:00,
2013-05-26 02:27:00,46.5,33.8,30.15,WSW,256,0.0,1.0,61,0.00,,---,0.00,VWS V14.01,2013-05-26 06:27:00,
2013-05-26 02:28:00,46.5,34.2,30.15,WSW,256,0.0,2.0,62,0.00,,---,0.00,VWS V14.01,2013-05-26 06:28:00,
2013-05-26 02:29:00,46.5,34.2,30.15,WSW,253,4.0,4.0,62,0.00,,---,0.00,VWS V14.01,2013-05-26 06:29:00,
2013-05-26 02:32:00,46.5,34.2,30.15,WSW,252,0.0,1.0,62,0.00,,---,0.00,VWS V14.01,2013-05-26 06:32:00,
2013-05-26 02:33:00,46.5,34.2,30.15,WSW,252,2.0,2.0,62,0.00,,---,0.00,VWS V14.01,2013-05-26 06:33:00,
2013-05-26 02:34:00,46.5,34.2,30.15,WSW,253,4.0,4.0,62,0.00,,---,0.00,VWS V14.01,2013-05-26 06:34:00,
2013-05-26 02:37:00,46.7,34.0,30.15,WSW,242,1.0,2.0,61,0.00,,---,0.00,VWS V14.01,2013-05-26 06:37:00,
2013-05-26 02:38:00,46.7,34.0,30.15,SW,229,3.0,4.0,61,0.00,,---,0.00,VWS V14.01,2013-05-26 06:38:00,
2013-05-26 02:39:00,46.7,34.0,30.15,West,261,4.0,4.0,61,0.00,,---,0.00,VWS V14.01,2013-05-26 06:39:00,
2013-05-26 02:42:00,46.8,33.7,30.15,WSW,254,2.0,5.0,60,0.00,,---,0.00,VWS V14.01,2013-05-26 06:42:00,
2013-05-26 02:43:00,47.0,33.8,30.15,WSW,254,0.0,5.0,60,0.00,,---,0.00,VWS V14.01,2013-05-26 06:43:00,
2013-05-26 02:44:00,47.0,33.8,30.15,WSW,254,1.0,1.0,60,0.00,,---,0.00,VWS V14.01,2013-05-26 06:44:00,
2013-05-26 02:47:00,47.1,33.5,30.15,WSW,254,0.0,3.0,59,0.00,,---,0.00,VWS V14.01,2013-05-26 06:47:00,
2013-05-26 02:48:00,47.1,33.5,30.15,WSW,252,0.0,3.0,59,0.00,,---,0.00,VWS V14.01,2013-05-26 06:48:00,
2013-05-26 02:49:00,47.1,33.9,30.15,SW,223,0.0,1.0,60,0.00,,---,0.00,VWS V14.01,2013-05-26 06:49:00,
2013-05-26 02:52:00,47.1,33.9,30.15,WSW,248,4.0,5.0,60,0.00,,---,0.00,VWS V14.01,2013-05-26 06:52:00,
2013-05-26 02:53:00,47.1,33.9,30.15,WSW,248,1.0,2.0,60,0.00,,---,0.00,VWS V14.01,2013-05-26 06:53:00,
2013-05-26 02:54:00,47.3,34.1,30.15,WSW,248,3.0,3.0,60,0.00,,---,0.00,VWS V14.01,2013-05-26 06:54:00,
2013-05-26 02:57:00,47.3,34.1,30.15,WSW,246,1.0,1.0,60,0.00,,---,0.00,VWS V14.01,2013-05-26 06:57:00,
2013-05-26 02:58:00,47.3,34.1,30.15,WSW,246,0.0,0.0,60,0.00,,---,0.00,VWS V14.01,2013-05-26 06:58:00,
2013-05-26 02:59:00,47.3,34.1,30.15,SSW,198,2.0,4.0,60,0.00,,---,0.00,VWS V14.01,2013-05-26 06:59:00,
2013-05-26 03:02:00,47.1,33.9,30.15,SSW,211,1.0,3.0,60,0.00,,---,0.00,VWS V14.01,2013-05-26 07:02:00,
2013-05-26 03:03:00,47.1,33.9,30.15,SSW,211,1.0,2.0,60,0.00,,---,0.00,VWS V14.01,2013-05-26 07:03:00,
2013-05-26 03:04:00,47.1,33.9,30.15,SW,234,4.0,5.0,60,0.00,,---,0.00,VWS V14.01,2013-05-26 07:04:00,
2013-05-26 03:07:00,47.1,33.5,30.15,WNW,282,6.0,9.0,59,0.00,,---,0.00,VWS V14.01,2013-05-26 07:07:00,
2013-05-26 03:08:00,47.1,33.5,30.15,WSW,253,0.0,3.0,59,0.00,,---,0.00,VWS V14.01,2013-05-26 07:08:00,
2013-05-26 03:09:00,47.1,33.5,30.15,WSW,253,0.0,3.0,59,0.00,,---,0.00,VWS V14.01,2013-05-26 07:09:00,
2013-05-26 03:12:00,47.1,33.5,30.15,WSW,252,0.0,5.0,59,0.00,,---,0.00,VWS V14.01,2013-05-26 07:12:00,
2013-05-26 03:13:00,47.1,33.5,30.15,WSW,252,0.0,0.0,59,0.00,,---,0.00,VWS V14.01,2013-05-26 07:13:00,
2013-05-26 03:14:00,47.1,33.9,30.15,WSW,250,1.0,2.0,60,0.00,,---,0.00,VWS V14.01,2013-05-26 07:14:00,
2013-05-26 03:18:00,47.0,33.8,30.15,SW,225,0.0,4.0,60,0.00,,---,0.00,VWS V14.01,2013-05-26 07:18:00,
2013-05-26 03:19:00,47.0,33.8,30.15,SW,225,0.0,3.0,60,0.00,,---,0.00,VWS V14.01,2013-05-26 07:19:00,
2013-05-26 03:23:00,47.0,33.8,30.15,WSW,253,0.0,6.0,60,0.00,,---,0.00,VWS V14.01,2013-05-26 07:23:00,
2013-05-26 03:24:00,47.0,33.8,30.15,WSW,253,3.0,3.0,60,0.00,,---,0.00,VWS V14.01,2013-05-26 07:24:00,
2013-05-26 03:28:00,47.0,33.4,30.15,WSW,244,3.0,3.0,59,0.00,,---,0.00,VWS V14.01,2013-05-26 07:28:00,
2013-05-26 03:29:00,47.0,33.4,30.15,SW,224,4.0,4.0,59,0.00,,---,0.00,VWS V14.01,2013-05-26 07:29:00,
2013-05-26 03:33:00,47.0,33.4,30.15,West,265,0.0,0.0,59,0.00,,---,0.00,VWS V14.01,2013-05-26 07:33:00,
2013-05-26 03:34:00,47.1,33.5,30.15,WSW,257,2.0,4.0,59,0.00,,---,0.00,VWS V14.01,2013-05-26 07:34:00,
2013-05-26 03:38:00,47.3,33.3,30.15,SW,228,0.0,2.0,58,0.00,,---,0.00,VWS V14.01,2013-05-26 07:38:00,
2013-05-26 03:39:00,47.3,33.3,30.15,SW,229,3.0,4.0,58,0.00,,---,0.00,VWS V14.01,2013-05-26 07:39:00,
2013-05-26 03:43:00,47.3,33.7,30.15,SW,234,0.0,0.0,59,0.00,,---,0.00,VWS V14.01,2013-05-26 07:43:00,
2013-05-26 03:44:00,47.3,33.7,30.15,SW,234,0.0,1.0,59,0.00,,---,0.00,VWS V14.01,2013-05-26 07:44:00,
2013-05-26 03:48:00,47.3,34.1,30.15,WNW,288,0.0,3.0,60,0.00,,---,0.00,VWS V14.01,2013-05-26 07:48:00,
2013-05-26 03:49:00,47.3,34.1,30.15,West,262,3.0,5.0,60,0.00,,---,0.00,VWS V14.01,2013-05-26 07:49:00,
2013-05-26 03:50:00,47.3,34.1,30.15,West,262,0.0,5.0,60,0.00,,---,0.00,VWS V14.01,2013-05-26 07:50:00,
2013-05-26 03:53:00,47.1,33.5,30.15,SW,230,0.0,1.0,59,0.00,,---,0.00,VWS V14.01,2013-05-26 07:53:00,
2013-05-26 03:54:00,47.1,33.5,30.15,SW,230,5.0,5.0,59,0.00,,---,0.00,VWS V14.01,2013-05-26 07:54:00,
2013-05-26 03:55:00,47.1,33.5,30.15,SSW,205,5.0,9.0,59,0.00,,---,0.00,VWS V14.01,2013-05-26 07:55:00,
2013-05-26 03:58:00,47.0,33.8,30.15,SW,231,7.0,17.0,60,0.00,,---,0.00,VWS V14.01,2013-05-26 07:58:00,
2013-05-26 03:59:00,47.0,33.8,30.15,West,265,1.0,4.0,60,0.00,,---,0.00,VWS V14.01,2013-05-26 07:59:00,
2013-05-26 04:00:00,47.0,33.8,30.15,West,265,0.0,4.0,60,0.00,,---,0.00,VWS V14.01,2013-05-26 08:00:00,
2013-05-26 04:03:00,47.0,33.8,30.15,SSW,209,1.0,2.0,60,0.00,,---,0.00,VWS V14.01,2013-05-26 08:03:00,
2013-05-26 04:04:00,46.8,33.7,30.15,SW,214,0.0,5.0,60,0.00,,---,0.00,VWS V14.01,2013-05-26 08:04:00,
2013-05-26 04:05:00,46.8,33.7,30.15,SW,214,0.0,5.0,60,0.00,,---,0.00,VWS V14.01,2013-05-26 08:05:00,
2013-05-26 04:08:00,46.8,34.1,30.15,WSW,244,4.0,6.0,61,0.00,,---,0.00,VWS V14.01,2013-05-26 08:08:00,
2013-05-26 04:10:00,46.7,33.6,30.15,WSW,248,0.0,4.0,60,0.00,,---,0.00,VWS V14.01,2013-05-26 08:10:00,
2013-05-26 04:13:00,46.7,33.6,30.15,WSW,256,2.0,3.0,60,0.00,,---,0.00,VWS V14.01,2013-05-26 08:13:00,
2013-05-26 04:15:00,46.7,33.2,30.15,WSW,238,2.0,7.0,59,0.00,,---,0.00,VWS V14.01,2013-05-26 08:15:00,
2013-05-26 04:18:00,46.7,33.2,30.15,SSW,213,3.0,7.0,59,0.00,,---,0.00,VWS V14.01,2013-05-26 08:18:00,
2013-05-26 04:19:00,46.7,33.6,30.15,SSW,213,2.0,7.0,60,0.00,,---,0.00,VWS V14.01,2013-05-26 08:19:00,
2013-05-26 04:20:00,46.7,33.6,30.15,West,259,1.0,4.0,60,0.00,,---,0.00,VWS V14.01,2013-05-26 08:20:00,
2013-05-26 04:24:00,46.7,33.6,30.15,SW,218,0.0,3.0,60,0.00,,---,0.00,VWS V14.01,2013-05-26 08:24:00,
2013-05-26 04:25:00,46.7,33.6,30.15,SW,218,0.0,2.0,60,0.00,,---,0.00,VWS V14.01,2013-05-26 08:25:00,
2013-05-26 04:29:00,46.7,34.0,30.15,SW,236,4.0,5.0,61,0.00,,---,0.00,VWS V14.01,2013-05-26 08:29:00,
2013-05-26 04:30:00,46.7,34.0,30.15,SW,236,1.0,1.0,61,0.00,,---,0.00,VWS V14.01,2013-05-26 08:30:00,
2013-05-26 04:34:00,46.5,33.4,30.15,West,269,0.0,3.0,60,0.00,,---,0.00,VWS V14.01,2013-05-26 08:34:00,
2013-05-26 04:35:00,46.5,33.4,30.15,WSW,257,1.0,1.0,60,0.00,,---,0.00,VWS V14.01,2013-05-26 08:35:00,
2013-05-26 04:39:00,46.5,33.4,30.15,West,276,0.0,1.0,60,0.00,,---,0.00,VWS V14.01,2013-05-26 08:39:00,
2013-05-26 04:40:00,46.5,33.4,30.15,West,276,0.0,1.0,60,0.00,,---,0.00,VWS V14.01,2013-05-26 08:40:00,
2013-05-26 04:44:00,46.5,33.4,30.15,NW,323,4.0,4.0,60,0.00,,---,0.00,VWS V14.01,2013-05-26 08:44:00,
2013-05-26 04:45:00,46.5,33.0,30.15,SW,236,0.0,1.0,59,0.00,,---,0.00,VWS V14.01,2013-05-26 08:45:00,
2013-05-26 04:49:00,46.5,33.0,30.15,WNW,287,6.0,6.0,59,0.00,,---,0.00,VWS V14.01,2013-05-26 08:49:00,
2013-05-26 04:50:00,46.5,33.0,30.15,NNW,329,4.0,5.0,59,0.00,,---,0.00,VWS V14.01,2013-05-26 08:50:00,
2013-05-26 04:54:00,46.5,33.0,30.15,West,277,0.0,0.0,59,0.00,,---,0.00,VWS V14.01,2013-05-26 08:54:00,
2013-05-26 04:55:00,46.5,33.0,30.15,West,270,2.0,3.0,59,0.00,,---,0.00,VWS V14.01,2013-05-26 08:55:00,
2013-05-26 04:59:00,46.5,33.0,30.15,NW,311,5.0,5.0,59,0.00,,---,0.00,VWS V14.01,2013-05-26 08:59:00,
2013-05-26 05:00:00,46.5,33.0,30.15,WNW,284,7.0,7.0,59,0.00,,---,0.00,VWS V14.01,2013-05-26 09:00:00,
2013-05-26 05:04:00,46.5,33.4,30.15,West,261,0.0,3.0,60,0.00,,---,0.00,VWS V14.01,2013-05-26 09:04:00,
2013-05-26 05:05:00,46.5,33.4,30.15,West,261,0.0,0.0,60,0.00,,---,0.00,VWS V14.01,2013-05-26 09:05:00,
2013-05-26 05:09:00,46.4,33.3,30.15,NW,304,0.0,2.0,60,0.00,,---,0.00,VWS V14.01,2013-05-26 09:09:00,
2013-05-26 05:10:00,46.4,33.3,30.15,WNW,303,3.0,5.0,60,0.00,,---,0.00,VWS V14.01,2013-05-26 09:10:00,
2013-05-26 05:11:00,46.4,33.3,30.15,WNW,303,0.0,5.0,60,0.00,,---,0.00,VWS V14.01,2013-05-26 09:11:00,
2013-05-26 05:14:00,46.4,33.3,30.15,NW,309,1.0,3.0,60,0.00,,---,0.00,VWS V14.01,2013-05-26 09:14:00,
2013-05-26 05:15:00,46.4,33.3,30.15,NW,309,0.0,3.0,60,0.00,,---,0.00,VWS V14.01,2013-05-26 09:15:00,
2013-05-26 05:16:00,46.2,33.1,30.15,NNW,338,0.0,4.0,60,0.00,,---,0.00,VWS V14.01,2013-05-26 09:16:00,
2013-05-26 05:19:00,46.2,33.1,30.15,SW,236,0.0,0.0,60,0.00,,---,0.00,VWS V14.01,2013-05-26 09:19:00,
2013-05-26 05:20:00,46.2,33.1,30.15,SW,236,0.0,1.0,60,0.00,,---,0.00,VWS V14.01,2013-05-26 09:20:00,
2013-05-26 05:21:00,46.2,33.5,30.15,SW,236,1.0,2.0,61,0.00,,---,0.00,VWS V14.01,2013-05-26 09:21:00,
2013-05-26 05:24:00,46.1,33.4,30.15,SW,236,0.0,0.0,61,0.00,,---,0.00,VWS V14.01,2013-05-26 09:24:00,
2013-05-26 05:25:00,46.1,33.4,30.15,SW,236,0.0,0.0,61,0.00,,---,0.00,VWS V14.01,2013-05-26 09:25:00,
2013-05-26 05:26:00,46.1,33.4,30.15,SW,236,0.0,0.0,61,0.00,,---,0.00,VWS V14.01,2013-05-26 09:26:00,
2013-05-26 05:29:00,46.0,33.3,30.15,NNW,328,0.0,0.0,61,0.00,,---,0.00,VWS V14.01,2013-05-26 09:29:00,
2013-05-26 05:30:00,46.0,33.3,30.15,NNW,328,2.0,3.0,61,0.00,,---,0.00,VWS V14.01,2013-05-26 09:30:00,
2013-05-26 05:31:00,46.0,33.3,30.15,NNW,328,0.0,2.0,61,0.00,,---,0.00,VWS V14.01,2013-05-26 09:31:00,
2013-05-26 05:34:00,45.8,33.1,30.16,NNW,333,0.0,0.0,61,0.00,,---,0.00,VWS V14.01,2013-05-26 09:34:00,
2013-05-26 05:35:00,45.8,33.1,30.16,NNW,333,0.0,2.0,61,0.00,,---,0.00,VWS V14.01,2013-05-26 09:35:00,
2013-05-26 05:36:00,45.8,33.1,30.16,NNW,333,0.0,2.0,61,0.00,,---,0.00,VWS V14.01,2013-05-26 09:36:00,
2013-05-26 05:39:00,45.7,33.4,30.16,NNW,333,0.0,0.0,62,0.00,,---,0.00,VWS V14.01,2013-05-26 09:39:00,
2013-05-26 05:40:00,45.7,33.4,30.16,NNW,333,0.0,0.0,62,0.00,,---,0.00,VWS V14.01,2013-05-26 09:40:00,
2013-05-26 05:41:00,45.7,33.4,30.16,NNW,333,1.0,1.0,62,0.00,,---,0.00,VWS V14.01,2013-05-26 09:41:00,
2013-05-26 05:44:00,45.5,33.2,30.16,NNW,333,0.0,0.0,62,0.00,,---,0.00,VWS V14.01,2013-05-26 09:44:00,
2013-05-26 05:45:00,45.5,33.2,30.16,NNW,333,1.0,1.0,62,0.00,,---,0.00,VWS V14.01,2013-05-26 09:45:00,
2013-05-26 05:46:00,45.5,33.2,30.16,NNW,333,2.0,2.0,62,0.00,,---,0.00,VWS V14.01,2013-05-26 09:46:00,
2013-05-26 05:49:00,45.5,33.2,30.16,West,279,0.0,0.0,62,0.00,,---,0.00,VWS V14.01,2013-05-26 09:49:00,
2013-05-26 05:50:00,45.5,33.2,30.16,West,279,0.0,0.0,62,0.00,,---,0.00,VWS V14.01,2013-05-26 09:50:00,
2013-05-26 05:51:00,45.4,33.2,30.16,West,279,0.0,0.0,62,0.00,,---,0.00,VWS V14.01,2013-05-26 09:51:00,
2013-05-26 05:54:00,45.4,33.2,30.16,West,279,0.0,1.0,62,0.00,,---,0.00,VWS V14.01,2013-05-26 09:54:00,
2013-05-26 05:56:00,45.4,33.6,30.16,West,279,0.0,0.0,63,0.00,,---,0.00,VWS V14.01,2013-05-26 09:56:00,
2013-05-26 05:59:00,45.2,33.8,30.16,WNW,295,1.0,2.0,64,0.00,,---,0.00,VWS V14.01,2013-05-26 09:59:00,
2013-05-26 06:01:00,45.2,33.4,30.16,WNW,295,1.0,1.0,63,0.00,,---,0.00,VWS V14.01,2013-05-26 10:01:00,
2013-05-26 06:04:00,45.2,33.4,30.17,West,271,0.0,0.0,63,0.00,,---,0.00,VWS V14.01,2013-05-26 10:04:00,
2013-05-26 06:06:00,45.1,33.7,30.17,West,271,0.0,0.0,64,0.00,,---,0.00,VWS V14.01,2013-05-26 10:06:00,
2013-05-26 06:09:00,45.1,33.7,30.17,West,271,0.0,1.0,64,0.00,,---,0.00,VWS V14.01,2013-05-26 10:09:00,
2013-05-26 06:11:00,45.1,33.7,30.17,West,271,0.0,0.0,64,0.00,,---,0.00,VWS V14.01,2013-05-26 10:11:00,
2013-05-26 06:14:00,45.1,34.0,30.17,West,271,0.0,1.0,65,0.00,,---,0.00,VWS V14.01,2013-05-26 10:14:00,
2013-05-26 06:16:00,45.1,33.7,30.17,West,271,0.0,1.0,64,0.00,,---,0.00,VWS V14.01,2013-05-26 10:16:00,
2013-05-26 06:19:00,45.1,33.7,30.17,West,271,0.0,2.0,64,0.00,,---,0.00,VWS V14.01,2013-05-26 10:19:00,
2013-05-26 06:21:00,45.1,34.0,30.17,West,271,0.0,0.0,65,0.00,,---,0.00,VWS V14.01,2013-05-26 10:21:00,
2013-05-26 06:25:00,45.2,34.2,30.17,WNW,286,0.0,0.0,65,0.00,,---,0.00,VWS V14.01,2013-05-26 10:25:00,
2013-05-26 06:26:00,45.4,34.3,30.17,WNW,286,1.0,1.0,65,0.00,,---,0.00,VWS V14.01,2013-05-26 10:26:00,
2013-05-26 06:30:00,45.5,34.8,30.17,WNW,286,0.0,0.0,66,0.00,,---,0.00,VWS V14.01,2013-05-26 10:30:00,
2013-05-26 06:31:00,45.7,35.4,30.17,WNW,286,0.0,0.0,67,0.00,,---,0.00,VWS V14.01,2013-05-26 10:31:00,
2013-05-26 06:35:00,46.0,34.9,30.18,NW,325,0.0,0.0,65,0.00,,---,0.00,VWS V14.01,2013-05-26 10:35:00,
2013-05-26 06:36:00,46.1,35.0,30.18,NW,325,0.0,0.0,65,0.00,,---,0.00,VWS V14.01,2013-05-26 10:36:00,
2013-05-26 06:40:00,46.4,35.3,30.18,NW,325,0.0,1.0,65,0.00,,---,0.00,VWS V14.01,2013-05-26 10:40:00,
2013-05-26 06:41:00,46.5,35.0,30.18,NW,325,0.0,1.0,64,0.00,,---,0.00,VWS V14.01,2013-05-26 10:41:00,
2013-05-26 06:45:00,47.0,34.7,30.18,NW,313,1.0,2.0,62,0.00,,---,0.00,VWS V14.01,2013-05-26 10:45:00,
2013-05-26 06:46:00,47.3,35.4,30.18,NW,313,0.0,0.0,63,0.00,,---,0.00,VWS V14.01,2013-05-26 10:46:00,
2013-05-26 06:50:00,47.6,34.8,30.18,WNW,301,1.0,1.0,61,0.00,,---,0.00,VWS V14.01,2013-05-26 10:50:00,
2013-05-26 06:51:00,47.7,34.9,30.18,WNW,301,0.0,0.0,61,0.00,,---,0.00,VWS V14.01,2013-05-26 10:51:00,
2013-05-26 06:55:00,48.3,35.1,30.18,West,266,2.0,6.0,60,0.00,,---,0.00,VWS V14.01,2013-05-26 10:55:00,
2013-05-26 06:56:00,48.5,35.7,30.18,West,266,0.0,1.0,61,0.00,,---,0.00,VWS V14.01,2013-05-26 10:56:00,
2013-05-26 06:57:00,48.5,35.7,30.18,West,266,0.0,1.0,61,0.00,,---,0.00,VWS V14.01,2013-05-26 10:57:00,
2013-05-26 07:00:00,48.9,34.8,30.18,West,266,0.0,1.0,58,0.00,,---,0.00,VWS V14.01,2013-05-26 11:00:00,
2013-05-26 07:01:00,49.1,35.4,30.18,West,266,0.0,1.0,59,0.00,,---,0.00,VWS V14.01,2013-05-26 11:01:00,
2013-05-26 07:02:00,49.2,35.5,30.18,West,266,1.0,1.0,59,0.00,,---,0.00,VWS V14.01,2013-05-26 11:02:00,
2013-05-26 07:05:00,49.5,35.3,30.18,NNW,331,4.0,7.0,58,0.00,,---,0.00,VWS V14.01,2013-05-26 11:05:00,
2013-05-26 07:06:00,49.6,35.0,30.18,NNW,331,0.0,0.0,57,0.00,,---,0.00,VWS V14.01,2013-05-26 11:06:00,
2013-05-26 07:07:00,49.6,35.0,30.18,NNW,331,0.0,1.0,57,0.00,,---,0.00,VWS V14.01,2013-05-26 11:07:00,
2013-05-26 07:10:00,49.9,34.8,30.18,West,273,0.0,0.0,56,0.00,,---,0.00,VWS V14.01,2013-05-26 11:10:00,
2013-05-26 07:11:00,50.1,34.6,30.18,West,273,1.0,1.0,55,0.00,,---,0.00,VWS V14.01,2013-05-26 11:11:00,
2013-05-26 07:12:00,50.1,34.6,30.18,West,273,0.0,1.0,55,0.00,,---,0.00,VWS V14.01,2013-05-26 11:12:00,
2013-05-26 07:15:00,50.4,34.9,30.18,WNW,301,2.0,3.0,55,0.00,,---,0.00,VWS V14.01,2013-05-26 11:15:00,
2013-05-26 07:16:00,50.4,35.3,30.18,NW,319,4.0,6.0,56,0.00,,---,0.00,VWS V14.01,2013-05-26 11:16:00,
2013-05-26 07:17:00,50.5,35.4,30.18,NW,309,2.0,6.0,56,0.00,,---,0.00,VWS V14.01,2013-05-26 11:17:00,
2013-05-26 07:20:00,50.7,34.7,30.18,WNW,302,1.0,5.0,54,0.00,,---,0.00,VWS V14.01,2013-05-26 11:20:00,
2013-05-26 07:21:00,50.8,35.2,30.18,WNW,302,0.0,1.0,55,0.00,,---,0.00,VWS V14.01,2013-05-26 11:21:00,
2013-05-26 07:22:00,51.0,35.4,30.18,WNW,301,1.0,3.0,55,0.00,,---,0.00,VWS V14.01,2013-05-26 11:22:00,
2013-05-26 07:25:00,51.1,35.0,30.18,WNW,298,3.0,3.0,54,0.00,,---,0.00,VWS V14.01,2013-05-26 11:25:00,
2013-05-26 07:27:00,51.1,35.0,30.18,NNW,337,2.0,3.0,54,0.00,,---,0.00,VWS V14.01,2013-05-26 11:27:00,
2013-05-26 07:30:00,51.6,36.9,30.18,WNW,290,2.0,2.0,57,0.00,,---,0.00,VWS V14.01,2013-05-26 11:30:00,
2013-05-26 07:32:00,51.7,37.0,30.18,West,273,0.0,5.0,57,0.00,,---,0.00,VWS V14.01,2013-05-26 11:32:00,
2013-05-26 07:35:00,52.0,37.2,30.18,West,273,0.0,0.0,57,0.00,,---,0.00,VWS V14.01,2013-05-26 11:35:00,
2013-05-26 07:37:00,52.2,36.5,30.18,West,273,0.0,0.0,55,0.00,,---,0.00,VWS V14.01,2013-05-26 11:37:00,
2013-05-26 07:40:00,52.3,36.6,30.18,West,273,0.0,0.0,55,0.00,,---,0.00,VWS V14.01,2013-05-26 11:40:00,
2013-05-26 07:42:00,52.5,35.9,30.18,NNW,336,2.0,4.0,53,0.00,,---,0.00,VWS V14.01,2013-05-26 11:42:00,
2013-05-26 07:45:00,52.6,35.5,30.18,NW,325,2.0,6.0,52,0.00,,---,0.00,VWS V14.01,2013-05-26 11:45:00,
2013-05-26 07:47:00,52.6,35.5,30.18,WSW,240,0.0,0.0,52,0.00,,---,0.00,VWS V14.01,2013-05-26 11:47:00,
2013-05-26 07:48:00,52.8,36.6,30.18,WSW,240,0.0,0.0,54,0.00,,---,0.00,VWS V14.01,2013-05-26 11:48:00,
2013-05-26 07:50:00,52.9,36.7,30.18,WSW,243,1.0,3.0,54,0.00,,---,0.00,VWS V14.01,2013-05-26 11:50:00,
2013-05-26 07:52:00,53.1,37.4,30.18,WSW,243,0.0,0.0,55,0.00,,---,0.00,VWS V14.01,2013-05-26 11:52:00,
2013-05-26 07:53:00,53.1,36.9,30.18,WSW,243,0.0,0.0,54,0.00,,---,0.00,VWS V14.01,2013-05-26 11:53:00,
2013-05-26 07:56:00,53.3,37.1,30.18,West,260,0.0,2.0,54,0.00,,---,0.00,VWS V14.01,2013-05-26 11:56:00,
2013-05-26 07:57:00,53.5,38.7,30.18,West,260,0.0,1.0,57,0.00,,---,0.00,VWS V14.01,2013-05-26 11:57:00,
2013-05-26 07:58:00,53.5,38.2,30.18,West,260,0.0,1.0,56,0.00,,---,0.00,VWS V14.01,2013-05-26 11:58:00,
2013-05-26 08:01:00,53.6,37.8,30.18,West,272,1.0,3.0,55,0.00,,---,0.00,VWS V14.01,2013-05-26 12:01:00,
2013-05-26 08:02:00,53.8,37.1,30.18,West,272,0.0,0.0,53,0.00,,---,0.00,VWS V14.01,2013-05-26 12:02:00,
2013-05-26 08:03:00,53.8,37.1,30.18,WSW,253,2.0,6.0,53,0.00,,---,0.00,VWS V14.01,2013-05-26 12:03:00,
2013-05-26 08:06:00,53.9,36.2,30.18,WNW,288,1.0,5.0,51,0.00,,---,0.00,VWS V14.01,2013-05-26 12:06:00,
2013-05-26 08:07:00,53.9,36.7,30.18,WNW,302,3.0,5.0,52,0.00,,---,0.00,VWS V14.01,2013-05-26 12:07:00,
2013-05-26 08:08:00,54.1,36.9,30.18,West,277,3.0,5.0,52,0.00,,---,0.00,VWS V14.01,2013-05-26 12:08:00,
2013-05-26 08:11:00,54.2,37.5,30.18,SW,235,1.0,10.0,53,0.00,,---,0.00,VWS V14.01,2013-05-26 12:11:00,
2013-05-26 08:12:00,54.2,36.5,30.18,WNW,292,0.0,4.0,51,0.00,,---,0.00,VWS V14.01,2013-05-26 12:12:00,
2013-05-26 08:13:00,54.2,37.0,30.18,West,279,3.0,5.0,52,0.00,,---,0.00,VWS V14.01,2013-05-26 12:13:00,
2013-05-26 08:16:00,54.5,37.2,30.18,West,275,0.0,0.0,52,0.00,,---,0.00,VWS V14.01,2013-05-26 12:16:00,
2013-05-26 08:17:00,54.5,37.7,30.19,WSW,256,1.0,2.0,53,0.00,,---,0.00,VWS V14.01,2013-05-26 12:17:00,
2013-05-26 08:18:00,54.7,37.4,30.19,SW,236,4.0,4.0,52,0.00,,---,0.00,VWS V14.01,2013-05-26 12:18:00,
2013-05-26 08:21:00,54.8,38.5,30.19,West,259,0.0,6.0,54,0.00,,---,0.00,VWS V14.01,2013-05-26 12:21:00,
2013-05-26 08:22:00,54.8,37.5,30.19,WSW,249,0.0,5.0,52,0.00,,---,0.00,VWS V14.01,2013-05-26 12:22:00,
2013-05-26 08:23:00,54.8,37.5,30.19,North,350,1.0,5.0,52,0.00,,---,0.00,VWS V14.01,2013-05-26 12:23:00,
2013-05-26 08:26:00,55.0,37.2,30.19,WNW,299,0.0,3.0,51,0.00,,---,0.00,VWS V14.01,2013-05-26 12:26:00,
2013-05-26 08:27:00,55.1,36.8,30.19,West,278,3.0,5.0,50,0.00,,---,0.00,VWS V14.01,2013-05-26 12:27:00,
2013-05-26 08:28:00,55.1,36.8,30.19,WNW,290,6.0,7.0,50,0.00,,---,0.00,VWS V14.01,2013-05-26 12:28:00,
2013-05-26 08:31:00,55.1,36.8,30.19,NW,323,9.0,9.0,50,0.00,,---,0.00,VWS V14.01,2013-05-26 12:31:00,
2013-05-26 08:32:00,55.3,37.5,30.19,WNW,291,2.0,7.0,51,0.00,,---,0.00,VWS V14.01,2013-05-26 12:32:00,
2013-05-26 08:33:00,55.3,37.5,30.19,WNW,290,0.0,1.0,51,0.00,,---,0.00,VWS V14.01,2013-05-26 12:33:00,
2013-05-26 08:36:00,55.4,37.6,30.19,West,265,0.0,0.0,51,0.00,,---,0.00,VWS V14.01,2013-05-26 12:36:00,
2013-05-26 08:37:00,55.4,37.1,30.19,North,355,3.0,6.0,50,0.00,,---,0.00,VWS V14.01,2013-05-26 12:37:00,
2013-05-26 08:38:00,55.6,37.8,30.19,WNW,288,2.0,2.0,51,0.00,,---,0.00,VWS V14.01,2013-05-26 12:38:00,
2013-05-26 08:39:00,55.6,36.8,30.19,NW,305,1.0,4.0,49,0.00,,---,0.00,VWS V14.01,2013-05-26 12:39:00,
2013-05-26 08:41:00,55.7,37.9,30.19,NW,309,4.0,8.0,51,0.00,,---,0.00,VWS V14.01,2013-05-26 12:41:00,
2013-05-26 08:42:00,55.7,37.4,30.19,WNW,290,0.0,4.0,50,0.00,,---,0.00,VWS V14.01,2013-05-26 12:42:00,
2013-05-26 08:43:00,55.7,36.8,30.19,NNW,327,5.0,5.0,49,0.00,,---,0.00,VWS V14.01,2013-05-26 12:43:00,
2013-05-26 08:44:00,55.7,36.8,30.19,WNW,300,0.0,6.0,49,0.00,,---,0.00,VWS V14.01,2013-05-26 12:44:00,
2013-05-26 08:46:00,55.9,37.0,30.19,West,269,1.0,1.0,49,0.00,,---,0.00,VWS V14.01,2013-05-26 12:46:00,
2013-05-26 08:47:00,55.9,37.5,30.19,West,275,7.0,9.0,50,0.00,,---,0.00,VWS V14.01,2013-05-26 12:47:00,
2013-05-26 08:48:00,55.9,37.0,30.19,NNW,330,11.0,11.0,49,0.00,,---,0.00,VWS V14.01,2013-05-26 12:48:00,
2013-05-26 08:49:00,55.9,37.0,30.19,NNW,348,0.0,11.0,49,0.00,,---,0.00,VWS V14.01,2013-05-26 12:49:00,
2013-05-26 08:51:00,56.0,38.2,30.19,NW,304,4.0,4.0,51,0.00,,---,0.00,VWS V14.01,2013-05-26 12:51:00,
2013-05-26 08:52:00,56.0,36.6,30.19,NNE,21,2.0,6.0,48,0.00,,---,0.00,VWS V14.01,2013-05-26 12:52:00,
2013-05-26 08:53:00,56.0,37.1,30.19,West,268,3.0,9.0,49,0.00,,---,0.00,VWS V14.01,2013-05-26 12:53:00,
2013-05-26 08:54:00,56.0,36.6,30.19,West,273,7.0,9.0,48,0.00,,---,0.00,VWS V14.01,2013-05-26 12:54:00,
2013-05-26 08:56:00,56.2,38.3,30.19,West,267,0.0,2.0,51,0.00,,---,0.00,VWS V14.01,2013-05-26 12:56:00,
2013-05-26 08:58:00,56.3,36.9,30.19,WSW,258,2.0,6.0,48,0.00,,---,0.00,VWS V14.01,2013-05-26 12:58:00,
2013-05-26 08:59:00,56.5,39.6,30.19,WSW,258,0.0,0.0,53,0.00,,---,0.00,VWS V14.01,2013-05-26 12:59:00,
2013-05-26 09:01:00,56.6,37.7,30.19,NNW,338,0.0,5.0,49,0.00,,---,0.00,VWS V14.01,2013-05-26 13:01:00,
2013-05-26 09:03:00,56.6,37.7,30.19,NNW,329,0.0,4.0,49,0.00,,---,0.00,VWS V14.01,2013-05-26 13:03:00,
2013-05-26 09:04:00,56.7,37.2,30.19,West,263,4.0,4.0,48,0.00,,---,0.00,VWS V14.01,2013-05-26 13:04:00,
2013-05-26 09:06:00,56.9,37.4,30.19,WNW,299,5.0,5.0,48,0.00,,---,0.00,VWS V14.01,2013-05-26 13:06:00,
2013-05-26 09:08:00,56.9,36.9,30.19,NNW,338,0.0,2.0,47,0.00,,---,0.00,VWS V14.01,2013-05-26 13:08:00,
2013-05-26 09:09:00,56.9,36.9,30.19,West,279,3.0,4.0,47,0.00,,---,0.00,VWS V14.01,2013-05-26 13:09:00,
2013-05-26 09:11:00,57.2,39.2,30.19,NW,310,0.0,3.0,51,0.00,,---,0.00,VWS V14.01,2013-05-26 13:11:00,
2013-05-26 09:13:00,57.3,39.8,30.19,North,5,5.0,5.0,52,0.00,,---,0.00,VWS V14.01,2013-05-26 13:13:00,
2013-05-26 09:14:00,57.3,37.8,30.19,NW,305,3.0,11.0,48,0.00,,---,0.00,VWS V14.01,2013-05-26 13:14:00,
2013-05-26 09:16:00,57.3,37.3,30.19,WSW,252,0.0,3.0,47,0.00,,---,0.00,VWS V14.01,2013-05-26 13:16:00,
2013-05-26 09:18:00,57.5,39.0,30.18,NW,313,1.0,2.0,50,0.00,,---,0.00,VWS V14.01,2013-05-26 13:18:00,
2013-05-26 09:19:00,57.5,37.5,30.18,NW,319,2.0,6.0,47,0.00,,---,0.00,VWS V14.01,2013-05-26 13:19:00,
2013-05-26 09:21:00,57.6,37.5,30.18,West,260,0.0,2.0,47,0.00,,---,0.00,VWS V14.01,2013-05-26 13:21:00,
2013-05-26 09:23:00,57.6,37.5,30.18,WNW,298,4.0,5.0,47,0.00,,---,0.00,VWS V14.01,2013-05-26 13:23:00,
2013-05-26 09:24:00,57.8,39.8,30.18,WNW,294,7.0,10.0,51,0.00,,---,0.00,VWS V14.01,2013-05-26 13:24:00,
2013-05-26 09:26:00,58.0,39.0,30.18,NNW,337,1.0,2.0,49,0.00,,---,0.00,VWS V14.01,2013-05-26 13:26:00,
2013-05-26 09:28:00,58.1,39.1,30.18,West,280,4.0,4.0,49,0.00,,---,0.00,VWS V14.01,2013-05-26 13:28:00,
2013-05-26 09:29:00,58.1,38.5,30.18,North,360,2.0,10.0,48,0.00,,---,0.00,VWS V14.01,2013-05-26 13:29:00,
2013-05-26 09:30:00,58.1,38.5,30.18,West,259,0.0,2.0,48,0.00,,---,0.00,VWS V14.01,2013-05-26 13:30:00,
2013-05-26 09:31:00,58.3,38.7,30.18,SSW,211,1.0,5.0,48,0.00,,---,0.00,VWS V14.01,2013-05-26 13:31:00,
2013-05-26 09:33:00,58.4,38.3,30.18,WNW,294,7.0,7.0,47,0.00,,---,0.00,VWS V14.01,2013-05-26 13:33:00,
2013-05-26 09:34:00,58.4,38.3,30.18,WNW,293,0.0,7.0,47,0.00,,---,0.00,VWS V14.01,2013-05-26 13:34:00,
2013-05-26 09:35:00,58.4,37.7,30.18,WNW,296,0.0,6.0,46,0.00,,---,0.00,VWS V14.01,2013-05-26 13:35:00,
2013-05-26 09:36:00,58.6,39.5,30.18,WSW,240,6.0,12.0,49,0.00,,---,0.00,VWS V14.01,2013-05-26 13:36:00,
2013-05-26 09:38:00,58.9,38.7,30.18,NW,305,0.0,2.0,47,0.00,,---,0.00,VWS V14.01,2013-05-26 13:38:00,
2013-05-26 09:39:00,58.9,38.7,30.18,NNW,333,5.0,5.0,47,0.00,,---,0.00,VWS V14.01,2013-05-26 13:39:00,
2013-05-26 09:40:00,58.9,38.2,30.18,ENE,61,2.0,2.0,46,0.00,,---,0.00,VWS V14.01,2013-05-26 13:40:00,
2013-05-26 09:41:00,59.0,39.4,30.18,ESE,107,0.0,1.0,48,0.00,,---,0.00,VWS V14.01,2013-05-26 13:41:00,
2013-05-26 09:43:00,59.0,37.7,30.18,West,270,12.0,14.0,45,0.00,,---,0.00,VWS V14.01,2013-05-26 13:43:00,
2013-05-26 09:44:00,59.0,37.7,30.18,WNW,298,11.0,13.0,45,0.00,,---,0.00,VWS V14.01,2013-05-26 13:44:00,
2013-05-26 09:45:00,59.0,37.1,30.18,North,11,11.0,11.0,44,0.00,,---,0.00,VWS V14.01,2013-05-26 13:45:00,
2013-05-26 09:46:00,59.0,37.7,30.18,NNW,333,1.0,4.0,45,0.00,,---,0.00,VWS V14.01,2013-05-26 13:46:00,
2013-05-26 09:48:00,59.2,38.5,30.18,NNW,338,0.0,1.0,46,0.00,,---,0.00,VWS V14.01,2013-05-26 13:48:00,
2013-05-26 09:49:00,59.2,38.5,30.18,NNW,338,0.0,1.0,46,0.00,,---,0.00,VWS V14.01,2013-05-26 13:49:00,
2013-05-26 09:50:00,59.2,39.5,30.18,WNW,292,2.0,2.0,48,0.00,,---,0.00,VWS V14.01,2013-05-26 13:50:00,
2013-05-26 09:51:00,59.2,37.3,30.18,SW,219,6.0,10.0,44,0.00,,---,0.00,VWS V14.01,2013-05-26 13:51:00,
2013-05-26 09:54:00,59.3,38.0,30.18,WNW,303,7.0,7.0,45,0.00,,---,0.00,VWS V14.01,2013-05-26 13:54:00,
2013-05-26 09:55:00,59.3,37.4,30.18,WNW,301,9.0,12.0,44,0.00,,---,0.00,VWS V14.01,2013-05-26 13:55:00,
2013-05-26 09:57:00,59.3,38.0,30.18,NNW,333,1.0,4.0,45,0.00,,---,0.00,VWS V14.01,2013-05-26 13:57:00,
2013-05-26 09:59:00,59.5,38.7,30.18,WNW,298,7.0,7.0,46,0.00,,---,0.00,VWS V14.01,2013-05-26 13:59:00,
2013-05-26 10:00:00,59.6,39.4,30.18,NNW,332,6.0,6.0,47,0.00,,---,0.00,VWS V14.01,2013-05-26 14:00:00,
2013-05-26 10:02:00,59.6,38.2,30.18,WSW,238,2.0,11.0,45,0.00,,---,0.00,VWS V14.01,2013-05-26 14:02:00,
2013-05-26 10:04:00,59.8,36.7,30.18,NW,317,3.0,3.0,42,0.00,,---,0.00,VWS V14.01,2013-05-26 14:04:00,
2013-05-26 10:05:00,59.8,36.7,30.18,SW,226,1.0,5.0,42,0.00,,---,0.00,VWS V14.01,2013-05-26 14:05:00,
2013-05-26 10:07:00,59.8,37.3,30.18,West,261,11.0,13.0,43,0.00,,---,0.00,VWS V14.01,2013-05-26 14:07:00,
2013-05-26 10:09:00,59.8,36.7,30.18,NW,321,7.0,10.0,42,0.00,,---,0.00,VWS V14.01,2013-05-26 14:09:00,
2013-05-26 10:10:00,59.8,38.4,30.18,NW,304,4.0,11.0,45,0.00,,---,0.00,VWS V14.01,2013-05-26 14:10:00,
2013-05-26 10:12:00,59.8,37.3,30.18,NW,308,0.0,4.0,43,0.00,,---,0.00,VWS V14.01,2013-05-26 14:12:00,
2013-05-26 10:14:00,59.9,38.0,30.18,WSW,240,0.0,1.0,44,0.00,,---,0.00,VWS V14.01,2013-05-26 14:14:00,
2013-05-26 10:15:00,60.1,38.1,30.18,WSW,238,1.0,1.0,44,0.00,,---,0.00,VWS V14.01,2013-05-26 14:15:00,
2013-05-26 10:17:00,60.1,37.5,30.18,SSW,195,2.0,2.0,43,0.00,,---,0.00,VWS V14.01,2013-05-26 14:17:00,
2013-05-26 10:19:00,60.2,37.6,30.18,West,275,3.0,4.0,43,0.00,,---,0.00,VWS V14.01,2013-05-26 14:19:00,
2013-05-26 10:20:00,60.2,37.0,30.18,WNW,300,5.0,6.0,42,0.00,,---,0.00,VWS V14.01,2013-05-26 14:20:00,
2013-05-26 10:22:00,60.4,37.2,30.18,North,350,3.0,3.0,42,0.00,,---,0.00,VWS V14.01,2013-05-26 14:22:00,
2013-05-26 10:24:00,60.4,36.6,30.18,West,276,6.0,9.0,41,0.00,,---,0.00,VWS V14.01,2013-05-26 14:24:00,
2013-05-26 10:25:00,60.5,36.1,30.18,NNW,343,3.0,9.0,40,0.00,,---,0.00,VWS V14.01,2013-05-26 14:25:00,
2013-05-26 10:27:00,60.7,37.5,30.18,NE,56,5.0,5.0,42,0.00,,---,0.00,VWS V14.01,2013-05-26 14:27:00,
2013-05-26 10:29:00,60.7,35.6,30.18,SW,223,0.0,2.0,39,0.00,,---,0.00,VWS V14.01,2013-05-26 14:29:00,
2013-05-26 10:30:00,60.7,36.3,30.18,NNW,333,4.0,7.0,40,0.00,,---,0.00,VWS V14.01,2013-05-26 14:30:00,
2013-05-26 10:32:00,60.9,35.8,30.17,NW,326,3.0,5.0,39,0.00,,---,0.00,VWS V14.01,2013-05-26 14:32:00,
2013-05-26 10:34:00,60.9,35.1,30.17,WNW,302,5.0,5.0,38,0.00,,---,0.00,VWS V14.01,2013-05-26 14:34:00,
2013-05-26 10:35:00,61.0,35.9,30.17,NNW,331,1.0,12.0,39,0.00,,---,0.00,VWS V14.01,2013-05-26 14:35:00,
2013-05-26 10:37:00,61.0,33.9,30.17,North,9,0.0,4.0,36,0.00,,---,0.00,VWS V14.01,2013-05-26 14:37:00,
2013-05-26 10:39:00,61.0,35.9,30.17,WNW,288,14.0,14.0,39,0.00,,---,0.00,VWS V14.01,2013-05-26 14:39:00,
2013-05-26 10:40:00,61.0,35.9,30.17,NNW,332,5.0,5.0,39,0.00,,---,0.00,VWS V14.01,2013-05-26 14:40:00,
2013-05-26 10:42:00,60.9,35.8,30.17,NNE,23,4.0,4.0,39,0.00,,---,0.00,VWS V14.01,2013-05-26 14:42:00,
2013-05-26 10:44:00,60.9,34.5,30.17,WNW,290,8.0,8.0,37,0.00,,---,0.00,VWS V14.01,2013-05-26 14:44:00,
2013-05-26 10:46:00,60.9,35.1,30.17,North,350,5.0,11.0,38,0.00,,---,0.00,VWS V14.01,2013-05-26 14:46:00,
2013-05-26 10:47:00,60.9,33.1,30.18,West,279,3.0,10.0,35,0.00,,---,0.00,VWS V14.01,2013-05-26 14:47:00,
2013-05-26 10:49:00,60.9,33.1,30.18,NW,313,10.0,15.0,35,0.00,,---,0.00,VWS V14.01,2013-05-26 14:49:00,
2013-05-26 10:50:00,60.9,33.1,30.18,NNE,22,7.0,15.0,35,0.00,,---,0.00,VWS V14.01,2013-05-26 14:50:00,
2013-05-26 10:51:00,60.7,34.3,30.18,NW,310,4.0,19.0,37,0.00,,---,0.00,VWS V14.01,2013-05-26 14:51:00,
2013-05-26 10:52:00,60.7,35.0,30.18,North,360,3.0,6.0,38,0.00,,---,0.00,VWS V14.01,2013-05-26 14:52:00,
2013-05-26 10:54:00,60.9,35.8,30.18,NNW,329,1.0,3.0,39,0.00,,---,0.00,VWS V14.01,2013-05-26 14:54:00,
2013-05-26 10:55:00,60.9,35.8,30.18,NW,312,2.0,13.0,39,0.00,,---,0.00,VWS V14.01,2013-05-26 14:55:00,
2013-05-26 10:56:00,60.9,35.8,30.18,NNE,27,3.0,15.0,39,0.00,,---,0.00,VWS V14.01,2013-05-26 14:56:00,
2013-05-26 10:57:00,60.9,35.8,30.18,West,279,5.0,6.0,39,0.00,,---,0.00,VWS V14.01,2013-05-26 14:57:00,
2013-05-26 10:59:00,61.0,37.2,30.18,West,271,3.0,5.0,41,0.00,,---,0.00,VWS V14.01,2013-05-26 14:59:00,
2013-05-26 11:00:00,61.2,35.4,30.18,WNW,282,6.0,6.0,38,0.00,,---,0.00,VWS V14.01,2013-05-26 15:00:00,
2013-05-26 11:01:00,61.2,33.3,30.18,North,360,11.0,13.0,35,0.00,,---,0.00,VWS V14.01,2013-05-26 15:01:00,
2013-05-26 11:02:00,61.2,34.1,30.17,WNW,282,3.0,10.0,36,0.00,,---,0.00,VWS V14.01,2013-05-26 15:02:00,
2013-05-26 11:04:00,61.2,34.7,30.17,NNE,32,2.0,4.0,37,0.00,,---,0.00,VWS V14.01,2013-05-26 15:04:00,
2013-05-26 11:05:00,61.2,36.1,30.17,SW,215,2.0,4.0,39,0.00,,---,0.00,VWS V14.01,2013-05-26 15:05:00,
2013-05-26 11:06:00,61.3,35.5,30.17,ESE,107,3.0,4.0,38,0.00,,---,0.00,VWS V14.01,2013-05-26 15:06:00,
2013-05-26 11:07:00,61.3,36.8,30.17,WNW,295,7.0,7.0,40,0.00,,---,0.00,VWS V14.01,2013-05-26 15:07:00,
2013-05-26 11:09:00,61.6,35.8,30.17,WSW,250,5.0,9.0,38,0.00,,---,0.00,VWS V14.01,2013-05-26 15:09:00,
2013-05-26 11:10:00,61.6,35.1,30.17,West,280,4.0,5.0,37,0.00,,---,0.00,VWS V14.01,2013-05-26 15:10:00,
2013-05-26 11:11:00,61.6,33.7,30.17,West,275,4.0,6.0,35,0.00,,---,0.00,VWS V14.01,2013-05-26 15:11:00,
2013-05-26 11:12:00,61.6,33.7,30.17,NW,310,12.0,12.0,35,0.00,,---,0.00,VWS V14.01,2013-05-26 15:12:00,
2013-05-26 11:14:00,61.6,32.2,30.17,WNW,300,10.0,12.0,33,0.00,,---,0.00,VWS V14.01,2013-05-26 15:14:00,
2013-05-26 11:15:00,61.6,33.7,30.17,NE,42,3.0,12.0,35,0.00,,---,0.00,VWS V14.01,2013-05-26 15:15:00,
2013-05-26 11:16:00,61.8,36.0,30.17,NE,50,3.0,3.0,38,0.00,,---,0.00,VWS V14.01,2013-05-26 15:16:00,
2013-05-26 11:18:00,61.8,35.3,30.17,North,5,5.0,8.0,37,0.00,,---,0.00,VWS V14.01,2013-05-26 15:18:00,
2013-05-26 11:19:00,61.8,33.9,30.17,NNE,29,1.0,7.0,35,0.00,,---,0.00,VWS V14.01,2013-05-26 15:19:00,
2013-05-26 11:20:00,61.8,33.9,30.17,NE,45,4.0,10.0,35,0.00,,---,0.00,VWS V14.01,2013-05-26 15:20:00,
2013-05-26 11:21:00,61.8,33.9,30.17,NNW,333,1.0,4.0,35,0.00,,---,0.00,VWS V14.01,2013-05-26 15:21:00,
2013-05-26 11:23:00,61.8,36.0,30.17,ENE,58,2.0,7.0,38,0.00,,---,0.00,VWS V14.01,2013-05-26 15:23:00,
2013-05-26 11:24:00,61.8,34.6,30.17,ESE,116,2.0,5.0,36,0.00,,---,0.00,VWS V14.01,2013-05-26 15:24:00,
2013-05-26 11:25:00,61.8,35.3,30.17,NW,313,3.0,5.0,37,0.00,,---,0.00,VWS V14.01,2013-05-26 15:25:00,
2013-05-26 11:26:00,62.0,35.5,30.17,West,281,5.0,10.0,37,0.00,,---,0.00,VWS V14.01,2013-05-26 15:26:00,
2013-05-26 11:28:00,62.0,37.4,30.17,NNW,340,7.0,7.0,40,0.00,,---,0.00,VWS V14.01,2013-05-26 15:28:00,
2013-05-26 11:29:00,62.1,35.5,30.17,WNW,297,2.0,7.0,37,0.00,,---,0.00,VWS V14.01,2013-05-26 15:29:00,
2013-05-26 11:30:00,62.1,35.5,30.17,North,5,8.0,11.0,37,0.00,,---,0.00,VWS V14.01,2013-05-26 15:30:00,
2013-05-26 11:31:00,62.1,34.8,30.17,West,265,0.0,10.0,36,0.00,,---,0.00,VWS V14.01,2013-05-26 15:31:00,
2013-05-26 11:33:00,62.3,37.7,30.17,WSW,257,6.0,6.0,40,0.00,,---,0.00,VWS V14.01,2013-05-26 15:33:00,
2013-05-26 11:34:00,62.4,38.4,30.17,NW,307,11.0,11.0,41,0.00,,---,0.00,VWS V14.01,2013-05-26 15:34:00,
2013-05-26 11:35:00,62.4,35.8,30.17,West,281,4.0,4.0,37,0.00,,---,0.00,VWS V14.01,2013-05-26 15:35:00,
2013-05-26 11:36:00,62.6,36.7,30.17,NW,312,3.0,4.0,38,0.00,,---,0.00,VWS V14.01,2013-05-26 15:36:00,
2013-05-26 11:38:00,62.7,38.0,30.17,WNW,283,0.0,1.0,40,0.00,,---,0.00,VWS V14.01,2013-05-26 15:38:00,
2013-05-26 11:40:00,62.9,34.1,30.17,SSE,148,0.0,3.0,34,0.00,,---,0.00,VWS V14.01,2013-05-26 15:40:00,
2013-05-26 11:41:00,63.1,35.7,30.17,West,276,7.0,10.0,36,0.00,,---,0.00,VWS V14.01,2013-05-26 15:41:00,
2013-05-26 11:43:00,63.2,35.8,30.17,NW,316,3.0,5.0,36,0.00,,---,0.00,VWS V14.01,2013-05-26 15:43:00,
2013-05-26 11:45:00,63.4,37.4,30.17,NW,310,11.0,11.0,38,0.00,,---,0.00,VWS V14.01,2013-05-26 15:45:00,
2013-05-26 11:46:00,63.4,37.4,30.17,WSW,254,0.0,0.0,38,0.00,,---,0.00,VWS V14.01,2013-05-26 15:46:00,
2013-05-26 11:48:00,63.5,38.1,30.17,WNW,283,2.0,4.0,39,0.00,,---,0.00,VWS V14.01,2013-05-26 15:48:00,
2013-05-26 11:50:00,63.7,36.3,30.17,West,281,1.0,3.0,36,0.00,,---,0.00,VWS V14.01,2013-05-26 15:50:00,
2013-05-26 11:51:00,63.9,36.5,30.17,NNW,348,3.0,6.0,36,0.00,,---,0.00,VWS V14.01,2013-05-26 15:51:00,
2013-05-26 11:53:00,63.9,37.1,30.17,SW,236,1.0,3.0,37,0.00,,---,0.00,VWS V14.01,2013-05-26 15:53:00,
2013-05-26 11:55:00,64.2,38.8,30.17,NNW,331,7.0,13.0,39,0.00,,---,0.00,VWS V14.01,2013-05-26 15:55:00,
2013-05-26 11:56:00,64.3,38.8,30.17,WNW,291,9.0,13.0,39,0.00,,---,0.00,VWS V14.01,2013-05-26 15:56:00,
2013-05-26 11:58:00,64.5,36.3,30.17,WNW,300,0.0,2.0,35,0.00,,---,0.00,VWS V14.01,2013-05-26 15:58:00,
2013-05-26 12:00:00,64.5,36.3,30.17,WNW,294,0.0,5.0,35,0.00,,---,0.00,VWS V14.01,2013-05-26 16:00:00,
2013-05-26 12:01:00,64.7,39.2,30.17,North,355,5.0,6.0,39,0.00,,---,0.00,VWS V14.01,2013-05-26 16:01:00,
2013-05-26 12:03:00,64.7,35.0,30.16,NNW,331,6.0,10.0,33,0.00,,---,0.00,VWS V14.01,2013-05-26 16:03:00,
2013-05-26 12:05:00,64.7,33.4,30.16,NW,319,5.0,5.0,31,0.00,,---,0.00,VWS V14.01,2013-05-26 16:05:00,
2013-05-26 12:06:00,64.5,34.0,30.16,NNE,12,6.0,10.0,32,0.00,,---,0.00,VWS V14.01,2013-05-26 16:06:00,
2013-05-26 12:07:00,64.5,34.8,30.16,WSW,244,4.0,5.0,33,0.00,,---,0.00,VWS V14.01,2013-05-26 16:07:00,
2013-05-26 12:08:00,64.5,34.8,30.16,WSW,244,0.0,5.0,33,0.00,,---,0.00,VWS V14.01,2013-05-26 16:08:00,
2013-05-26 12:10:00,64.7,38.5,30.16,NE,36,0.0,3.0,38,0.00,,---,0.00,VWS V14.01,2013-05-26 16:10:00,
2013-05-26 12:11:00,64.7,39.2,30.16,NW,306,1.0,1.0,39,0.00,,---,0.00,VWS V14.01,2013-05-26 16:11:00,
2013-05-26 12:12:00,64.8,37.2,30.16,WNW,292,1.0,6.0,36,0.00,,---,0.00,VWS V14.01,2013-05-26 16:12:00,
2013-05-26 12:13:00,64.8,37.9,30.16,NNW,329,0.0,5.0,37,0.00,,---,0.00,VWS V14.01,2013-05-26 16:13:00,
2013-05-26 12:15:00,65.0,36.7,30.16,NW,320,3.0,4.0,35,0.00,,---,0.00,VWS V14.01,2013-05-26 16:15:00,
2013-05-26 12:16:00,65.2,36.9,30.16,WNW,301,1.0,1.0,35,0.00,,---,0.00,VWS V14.01,2013-05-26 16:16:00,
2013-05-26 12:17:00,65.2,38.3,30.17,WNW,298,1.0,6.0,37,0.00,,---,0.00,VWS V14.01,2013-05-26 16:17:00,
2013-05-26 12:18:00,65.3,37.7,30.17,North,349,3.0,6.0,36,0.00,,---,0.00,VWS V14.01,2013-05-26 16:18:00,
2013-05-26 12:20:00,65.5,37.2,30.17,NNW,327,1.0,11.0,35,0.00,,---,0.00,VWS V14.01,2013-05-26 16:20:00,
2013-05-26 12:21:00,65.5,35.7,30.17,West,275,4.0,4.0,33,0.00,,---,0.00,VWS V14.01,2013-05-26 16:21:00,
2013-05-26 12:22:00,65.5,34.1,30.17,WNW,295,5.0,7.0,31,0.00,,---,0.00,VWS V14.01,2013-05-26 16:22:00,
2013-05-26 12:23:00,65.5,34.9,30.17,West,277,3.0,10.0,32,0.00,,---,0.00,VWS V14.01,2013-05-26 16:23:00,
2013-05-26 12:25:00,65.6,35.8,30.17,NW,325,2.0,2.0,33,0.00,,---,0.00,VWS V14.01,2013-05-26 16:25:00,
2013-05-26 12:26:00,65.6,36.5,30.17,WSW,246,0.0,2.0,34,0.00,,---,0.00,VWS V14.01,2013-05-26 16:26:00,
2013-05-26 12:27:00,65.6,37.2,30.17,West,270,3.0,4.0,35,0.00,,---,0.00,VWS V14.01,2013-05-26 16:27:00,
2013-05-26 12:28:00,65.8,36.7,30.17,NNE,13,1.0,5.0,34,0.00,,---,0.00,VWS V14.01,2013-05-26 16:28:00,
2013-05-26 12:30:00,65.8,38.1,30.17,WSW,258,6.0,10.0,36,0.00,,---,0.00,VWS V14.01,2013-05-26 16:30:00,
2013-05-26 12:31:00,66.0,40.4,30.17,West,261,0.0,3.0,39,0.00,,---,0.00,VWS V14.01,2013-05-26 16:31:00,
2013-05-26 12:32:00,66.1,40.5,30.16,West,270,3.0,4.0,39,0.00,,---,0.00,VWS V14.01,2013-05-26 16:32:00,
2013-05-26 12:33:00,66.1,39.8,30.16,West,265,4.0,13.0,38,0.00,,---,0.00,VWS V14.01,2013-05-26 16:33:00,
2013-05-26 12:35:00,66.4,37.9,30.16,NW,309,3.0,5.0,35,0.00,,---,0.00,VWS V14.01,2013-05-26 16:35:00,
2013-05-26 12:36:00,66.4,36.5,30.16,NNE,26,0.0,4.0,33,0.00,,---,0.00,VWS V14.01,2013-05-26 16:36:00,
2013-05-26 12:37:00,66.4,38.7,30.16,NE,42,4.0,4.0,36,0.00,,---,0.00,VWS V14.01,2013-05-26 16:37:00,
2013-05-26 12:38:00,66.4,38.7,30.16,NNW,330,2.0,9.0,36,0.00,,---,0.00,VWS V14.01,2013-05-26 16:38:00,
2013-05-26 12:40:00,66.4,36.5,30.16,NW,318,6.0,10.0,33,0.00,,---,0.00,VWS V14.01,2013-05-26 16:40:00,
2013-05-26 12:41:00,66.4,34.0,30.16,West,260,7.0,10.0,30,0.00,,---,0.00,VWS V14.01,2013-05-26 16:41:00,
2013-05-26 12:42:00,66.4,35.7,30.16,NNE,19,7.0,12.0,32,0.00,,---,0.00,VWS V14.01,2013-05-26 16:42:00,
2013-05-26 12:43:00,66.3,33.1,30.16,NNW,342,6.0,6.0,29,0.00,,---,0.00,VWS V14.01,2013-05-26 16:43:00,
2013-05-26 12:45:00,66.3,34.0,30.16,NNE,19,5.0,5.0,30,0.00,,---,0.00,VWS V14.01,2013-05-26 16:45:00,
2013-05-26 12:46:00,66.3,33.1,30.16,NW,309,10.0,12.0,29,0.00,,---,0.00,VWS V14.01,2013-05-26 16:46:00,
2013-05-26 12:47:00,66.1,34.6,30.15,NNE,31,10.0,11.0,31,0.00,,---,0.00,VWS V14.01,2013-05-26 16:47:00,
2013-05-26 12:48:00,66.1,34.6,30.15,SSW,197,2.0,9.0,31,0.00,,---,0.00,VWS V14.01,2013-05-26 16:48:00,
2013-05-26 12:50:00,66.3,34.8,30.15,NW,309,2.0,6.0,31,0.00,,---,0.00,VWS V14.01,2013-05-26 16:50:00,
2013-05-26 12:51:00,66.3,34.8,30.15,SW,233,5.0,11.0,31,0.00,,---,0.00,VWS V14.01,2013-05-26 16:51:00,
2013-05-26 12:52:00,66.4,34.9,30.15,North,5,1.0,4.0,31,0.00,,---,0.00,VWS V14.01,2013-05-26 16:52:00,
2013-05-26 12:53:00,66.4,34.0,30.15,NNW,348,0.0,4.0,30,0.00,,---,0.00,VWS V14.01,2013-05-26 16:53:00,
2013-05-26 12:55:00,66.4,37.2,30.15,NNE,21,0.0,2.0,34,0.00,,---,0.00,VWS V14.01,2013-05-26 16:55:00,
2013-05-26 12:56:00,66.4,37.2,30.15,NNW,329,7.0,9.0,34,0.00,,---,0.00,VWS V14.01,2013-05-26 16:56:00,
2013-05-26 12:58:00,66.4,34.9,30.15,NNW,330,6.0,7.0,31,0.00,,---,0.00,VWS V14.01,2013-05-26 16:58:00,
2013-05-26 13:00:00,66.6,35.8,30.15,WNW,291,2.0,13.0,32,0.00,,---,0.00,VWS V14.01,2013-05-26 17:00:00,
2013-05-26 13:01:00,66.8,37.6,30.15,West,281,4.0,4.0,34,0.00,,---,0.00,VWS V14.01,2013-05-26 17:01:00,
2013-05-26 13:03:00,66.9,38.4,30.15,WNW,287,5.0,13.0,35,0.00,,---,0.00,VWS V14.01,2013-05-26 17:03:00,
2013-05-26 13:05:00,67.1,35.5,30.15,WNW,298,7.0,9.0,31,0.00,,---,0.00,VWS V14.01,2013-05-26 17:05:00,
2013-05-26 13:06:00,67.1,37.1,30.15,NNW,327,7.0,7.0,33,0.00,,---,0.00,VWS V14.01,2013-05-26 17:06:00,
2013-05-26 13:08:00,67.1,34.7,30.15,West,281,4.0,10.0,30,0.00,,---,0.00,VWS V14.01,2013-05-26 17:08:00,
2013-05-26 13:10:00,67.3,34.8,30.15,NW,312,7.0,9.0,30,0.00,,---,0.00,VWS V14.01,2013-05-26 17:10:00,
2013-05-26 13:11:00,67.3,34.8,30.15,NW,318,2.0,7.0,30,0.00,,---,0.00,VWS V14.01,2013-05-26 17:11:00,
2013-05-26 13:13:00,67.4,38.1,30.15,WSW,242,10.0,10.0,34,0.00,,---,0.00,VWS V14.01,2013-05-26 17:13:00,
2013-05-26 13:15:00,67.4,34.1,30.15,WNW,296,10.0,15.0,29,0.00,,---,0.00,VWS V14.01,2013-05-26 17:15:00,
2013-05-26 13:16:00,67.4,33.2,30.15,North,355,5.0,7.0,28,0.00,,---,0.00,VWS V14.01,2013-05-26 17:16:00,
2013-05-26 13:18:00,67.4,30.4,30.15,WSW,242,5.0,5.0,25,0.00,,---,0.00,VWS V14.01,2013-05-26 17:18:00,
2013-05-26 13:19:00,67.6,34.2,30.15,WSW,252,0.0,5.0,29,0.00,,---,0.00,VWS V14.01,2013-05-26 17:19:00,
2013-05-26 13:20:00,67.4,31.4,30.15,NNW,333,4.0,15.0,26,0.00,,---,0.00,VWS V14.01,2013-05-26 17:20:00,
2013-05-26 13:21:00,67.4,33.2,30.15,NW,323,7.0,9.0,28,0.00,,---,0.00,VWS V14.01,2013-05-26 17:21:00,
2013-05-26 13:22:00,67.4,33.2,30.15,West,267,9.0,12.0,28,0.00,,---,0.00,VWS V14.01,2013-05-26 17:22:00,
2013-05-26 13:23:00,67.4,32.3,30.15,NNW,330,6.0,11.0,27,0.00,,---,0.00,VWS V14.01,2013-05-26 17:23:00,
2013-05-26 13:24:00,67.4,33.2,30.15,NW,311,9.0,12.0,28,0.00,,---,0.00,VWS V14.01,2013-05-26 17:24:00,
2013-05-26 13:25:00,67.3,32.2,30.15,WNW,293,6.0,11.0,27,0.00,,---,0.00,VWS V14.01,2013-05-26 17:25:00,
2013-05-26 13:26:00,67.4,34.9,30.15,WSW,257,5.0,6.0,30,0.00,,---,0.00,VWS V14.01,2013-05-26 17:26:00,
2013-05-26 13:27:00,67.4,34.9,30.15,WSW,257,0.0,6.0,30,0.00,,---,0.00,VWS V14.01,2013-05-26 17:27:00,
2013-05-26 13:28:00,67.3,31.3,30.15,NW,319,7.0,7.0,26,0.00,,---,0.00,VWS V14.01,2013-05-26 17:28:00,
2013-05-26 13:29:00,67.3,33.1,30.15,North,350,3.0,7.0,28,0.00,,---,0.00,VWS V14.01,2013-05-26 17:29:00,
2013-05-26 13:31:00,67.4,32.3,30.15,WNW,288,4.0,12.0,27,0.00,,---,0.00,VWS V14.01,2013-05-26 17:31:00,
2013-05-26 13:32:00,67.4,32.3,30.15,WNW,300,4.0,7.0,27,0.00,,---,0.00,VWS V14.01,2013-05-26 17:32:00,
2013-05-26 13:33:00,67.4,33.2,30.13,WSW,252,7.0,7.0,28,0.00,,---,0.00,VWS V14.01,2013-05-26 17:33:00,
2013-05-26 13:34:00,67.6,33.4,30.13,West,262,0.0,8.0,28,0.00,,---,0.00,VWS V14.01,2013-05-26 17:34:00,
2013-05-26 13:36:00,67.8,33.5,30.13,NNW,333,0.0,5.0,28,0.00,,---,0.00,VWS V14.01,2013-05-26 17:36:00,
2013-05-26 13:37:00,67.8,33.5,30.13,NNW,336,6.0,9.0,28,0.00,,---,0.00,VWS V14.01,2013-05-26 17:37:00,
2013-05-26 13:38:00,67.9,34.5,30.13,West,274,5.0,5.0,29,0.00,,---,0.00,VWS V14.01,2013-05-26 17:38:00,
2013-05-26 13:39:00,67.9,34.5,30.13,NW,325,2.0,6.0,29,0.00,,---,0.00,VWS V14.01,2013-05-26 17:39:00,
2013-05-26 13:41:00,68.3,34.0,30.13,WNW,295,2.0,9.0,28,0.00,,---,0.00,VWS V14.01,2013-05-26 17:41:00,
2013-05-26 13:42:00,68.3,34.0,30.13,NW,324,2.0,10.0,28,0.00,,---,0.00,VWS V14.01,2013-05-26 17:42:00,
2013-05-26 13:43:00,68.3,33.1,30.13,South,180,3.0,6.0,27,0.00,,---,0.00,VWS V14.01,2013-05-26 17:43:00,
2013-05-26 13:44:00,68.3,33.1,30.13,NW,306,2.0,6.0,27,0.00,,---,0.00,VWS V14.01,2013-05-26 17:44:00,
2013-05-26 13:46:00,68.3,34.0,30.13,North,350,1.0,1.0,28,0.00,,---,0.00,VWS V14.01,2013-05-26 17:46:00,
2013-05-26 13:47:00,68.3,34.0,30.13,WNW,286,2.0,13.0,28,0.00,,---,0.00,VWS V14.01,2013-05-26 17:47:00,
2013-05-26 13:48:00,68.4,34.0,30.13,WNW,296,3.0,9.0,28,0.00,,---,0.00,VWS V14.01,2013-05-26 17:48:00,
2013-05-26 13:49:00,68.4,34.0,30.13,WNW,300,3.0,9.0,28,0.00,,---,0.00,VWS V14.01,2013-05-26 17:49:00,
2013-05-26 13:51:00,68.4,34.0,30.13,South,190,4.0,4.0,28,0.00,,---,0.00,VWS V14.01,2013-05-26 17:51:00,
2013-05-26 13:52:00,68.6,33.3,30.13,North,360,3.0,5.0,27,0.00,,---,0.00,VWS V14.01,2013-05-26 17:52:00,
2013-05-26 13:53:00,68.4,32.2,30.13,West,267,2.0,11.0,26,0.00,,---,0.00,VWS V14.01,2013-05-26 17:53:00,
2013-05-26 13:54:00,68.4,32.2,30.13,North,9,4.0,6.0,26,0.00,,---,0.00,VWS V14.01,2013-05-26 17:54:00,
2013-05-26 13:56:00,68.4,33.1,30.13,WNW,288,10.0,10.0,27,0.00,,---,0.00,VWS V14.01,2013-05-26 17:56:00,
2013-05-26 13:57:00,68.4,32.2,30.13,NNW,330,3.0,11.0,26,0.00,,---,0.00,VWS V14.01,2013-05-26 17:57:00,
2013-05-26 13:58:00,68.4,34.9,30.13,West,263,3.0,4.0,29,0.00,,---,0.00,VWS V14.01,2013-05-26 17:58:00,
2013-05-26 13:59:00,68.4,34.9,30.13,SW,230,6.0,6.0,29,0.00,,---,0.00,VWS V14.01,2013-05-26 17:59:00,
2013-05-26 14:01:00,68.4,34.0,30.13,West,263,5.0,6.0,28,0.00,,---,0.00,VWS V14.01,2013-05-26 18:01:00,
2013-05-26 14:02:00,68.4,34.0,30.13,NW,309,2.0,19.0,28,0.00,,---,0.00,VWS V14.01,2013-05-26 18:02:00,
2013-05-26 14:03:00,68.4,32.2,30.13,NW,319,0.0,7.0,26,0.00,,---,0.00,VWS V14.01,2013-05-26 18:03:00,
2013-05-26 14:04:00,68.4,34.0,30.13,West,279,4.0,4.0,28,0.00,,---,0.00,VWS V14.01,2013-05-26 18:04:00,
2013-05-26 14:06:00,68.6,34.2,30.13,North,11,6.0,11.0,28,0.00,,---,0.00,VWS V14.01,2013-05-26 18:06:00,
2013-05-26 14:07:00,68.4,31.2,30.13,North,9,2.0,4.0,25,0.00,,---,0.00,VWS V14.01,2013-05-26 18:07:00,
2013-05-26 14:09:00,68.4,31.2,30.13,West,281,3.0,4.0,25,0.00,,---,0.00,VWS V14.01,2013-05-26 18:09:00,
2013-05-26 14:11:00,68.6,31.4,30.13,WNW,286,2.0,4.0,25,0.00,,---,0.00,VWS V14.01,2013-05-26 18:11:00,
2013-05-26 14:12:00,68.6,32.4,30.13,West,270,0.0,1.0,26,0.00,,---,0.00,VWS V14.01,2013-05-26 18:12:00,
2013-05-26 14:14:00,68.6,33.3,30.13,NW,309,4.0,7.0,27,0.00,,---,0.00,VWS V14.01,2013-05-26 18:14:00,
2013-05-26 14:16:00,68.6,32.4,30.13,NW,306,10.0,10.0,26,0.00,,---,0.00,VWS V14.01,2013-05-26 18:16:00,
2013-05-26 14:17:00,68.6,31.4,30.11,WSW,242,2.0,3.0,25,0.00,,---,0.00,VWS V14.01,2013-05-26 18:17:00,
2013-05-26 14:19:00,68.8,32.5,30.11,WNW,300,5.0,13.0,26,0.00,,---,0.00,VWS V14.01,2013-05-26 18:19:00,
2013-05-26 14:21:00,68.9,34.5,30.11,North,9,4.0,6.0,28,0.00,,---,0.00,VWS V14.01,2013-05-26 18:21:00,
2013-05-26 14:22:00,68.9,34.5,30.11,West,278,5.0,15.0,28,0.00,,---,0.00,VWS V14.01,2013-05-26 18:22:00,
2013-05-26 14:24:00,68.9,32.6,30.11,NW,317,3.0,5.0,26,0.00,,---,0.00,VWS V14.01,2013-05-26 18:24:00,
2013-05-26 14:26:00,69.1,31.8,30.11,SSW,196,2.0,6.0,25,0.00,,---,0.00,VWS V14.01,2013-05-26 18:26:00,
2013-05-26 14:27:00,69.1,32.8,30.11,SW,236,10.0,10.0,26,0.00,,---,0.00,VWS V14.01,2013-05-26 18:27:00,
2013-05-26 14:29:00,69.1,30.8,30.11,WSW,245,5.0,8.0,24,0.00,,---,0.00,VWS V14.01,2013-05-26 18:29:00,
2013-05-26 14:31:00,69.1,32.8,30.11,SW,227,6.0,13.0,26,0.00,,---,0.00,VWS V14.01,2013-05-26 18:31:00,
2013-05-26 14:32:00,69.1,31.8,30.11,West,259,1.0,15.0,25,0.00,,---,0.00,VWS V14.01,2013-05-26 18:32:00,
2013-05-26 14:34:00,69.1,33.7,30.11,WNW,286,4.0,4.0,27,0.00,,---,0.00,VWS V14.01,2013-05-26 18:34:00,
2013-05-26 14:37:00,69.3,34.8,30.11,SW,214,2.0,4.0,28,0.00,,---,0.00,VWS V14.01,2013-05-26 18:37:00,
2013-05-26 14:39:00,69.3,32.0,30.11,WNW,298,5.0,5.0,25,0.00,,---,0.00,VWS V14.01,2013-05-26 18:39:00,
2013-05-26 14:42:00,69.4,31.1,30.11,SW,219,11.0,11.0,24,0.00,,---,0.00,VWS V14.01,2013-05-26 18:42:00,
2013-05-26 14:43:00,69.4,32.1,30.11,NNW,344,5.0,13.0,25,0.00,,---,0.00,VWS V14.01,2013-05-26 18:43:00,
2013-05-26 14:44:00,69.4,33.1,30.11,East,81,1.0,3.0,26,0.00,,---,0.00,VWS V14.01,2013-05-26 18:44:00,
2013-05-26 14:47:00,69.4,33.1,30.11,NW,319,3.0,19.0,26,0.00,,---,0.00,VWS V14.01,2013-05-26 18:47:00,
2013-05-26 14:48:00,69.4,33.1,30.11,West,263,1.0,8.0,26,0.00,,---,0.00,VWS V14.01,2013-05-26 18:48:00,
2013-05-26 14:49:00,69.4,33.1,30.11,WNW,302,9.0,9.0,26,0.00,,---,0.00,VWS V14.01,2013-05-26 18:49:00,
2013-05-26 14:52:00,69.6,33.2,30.11,WSW,246,7.0,7.0,26,0.00,,---,0.00,VWS V14.01,2013-05-26 18:52:00,
2013-05-26 14:53:00,69.6,34.2,30.11,WSW,240,3.0,7.0,27,0.00,,---,0.00,VWS V14.01,2013-05-26 18:53:00,
2013-05-26 14:54:00,69.6,34.2,30.11,NNW,327,3.0,6.0,27,0.00,,---,0.00,VWS V14.01,2013-05-26 18:54:00,
2013-05-26 14:57:00,69.8,35.3,30.11,SW,231,11.0,12.0,28,0.00,,---,0.00,VWS V14.01,2013-05-26 18:57:00,
2013-05-26 14:58:00,69.8,34.3,30.11,West,267,2.0,12.0,27,0.00,,---,0.00,VWS V14.01,2013-05-26 18:58:00,
2013-05-26 14:59:00,69.9,34.4,30.11,West,268,4.0,7.0,27,0.00,,---,0.00,VWS V14.01,2013-05-26 18:59:00,
2013-05-26 15:02:00,69.9,32.5,30.11,WNW,298,12.0,12.0,25,0.00,,---,0.00,VWS V14.01,2013-05-26 19:02:00,
2013-05-26 15:03:00,69.9,33.5,30.11,West,275,4.0,12.0,26,0.00,,---,0.00,VWS V14.01,2013-05-26 19:03:00,
2013-05-26 15:04:00,69.9,32.5,30.11,West,261,4.0,6.0,25,0.00,,---,0.00,VWS V14.01,2013-05-26 19:04:00,
2013-05-26 15:05:00,69.9,33.5,30.11,NW,324,4.0,9.0,26,0.00,,---,0.00,VWS V14.01,2013-05-26 19:05:00,
2013-05-26 15:07:00,69.9,33.5,30.11,WSW,246,9.0,9.0,26,0.00,,---,0.00,VWS V14.01,2013-05-26 19:07:00,
2013-05-26 15:08:00,69.9,33.5,30.11,NNW,336,8.0,9.0,26,0.00,,---,0.00,VWS V14.01,2013-05-26 19:08:00,
2013-05-26 15:09:00,69.8,31.4,30.11,WSW,253,7.0,12.0,24,0.00,,---,0.00,VWS V14.01,2013-05-26 19:09:00,
2013-05-26 15:10:00,69.8,31.4,30.11,NW,311,4.0,12.0,24,0.00,,---,0.00,VWS V14.01,2013-05-26 19:10:00,
2013-05-26 15:12:00,69.6,35.1,30.11,WSW,255,5.0,5.0,28,0.00,,---,0.00,VWS V14.01,2013-05-26 19:12:00,
2013-05-26 15:13:00,69.8,35.3,30.11,NW,304,9.0,11.0,28,0.00,,---,0.00,VWS V14.01,2013-05-26 19:13:00,
2013-05-26 15:14:00,69.6,33.2,30.11,SSW,207,1.0,3.0,26,0.00,,---,0.00,VWS V14.01,2013-05-26 19:14:00,
2013-05-26 15:15:00,69.8,34.3,30.11,SSW,211,0.0,0.0,27,0.00,,---,0.00,VWS V14.01,2013-05-26 19:15:00,
2013-05-26 15:17:00,69.8,34.3,30.11,SW,223,6.0,6.0,27,0.00,,---,0.00,VWS V14.01,2013-05-26 19:17:00,
2013-05-26 15:18:00,69.8,34.3,30.11,NW,318,4.0,14.0,27,0.00,,---,0.00,VWS V14.01,2013-05-26 19:18:00,
2013-05-26 15:19:00,69.9,34.4,30.11,SW,222,7.0,7.0,27,0.00,,---,0.00,VWS V14.01,2013-05-26 19:19:00,
2013-05-26 15:20:00,69.9,34.4,30.11,North,360,7.0,7.0,27,0.00,,---,0.00,VWS V14.01,2013-05-26 19:20:00,
2013-05-26 15:22:00,69.9,31.5,30.11,NW,315,12.0,13.0,24,0.00,,---,0.00,VWS V14.01,2013-05-26 19:22:00,
2013-05-26 15:23:00,69.9,32.5,30.11,WNW,296,2.0,13.0,25,0.00,,---,0.00,VWS V14.01,2013-05-26 19:23:00,
2013-05-26 15:24:00,69.9,32.5,30.11,WNW,294,11.0,12.0,25,0.00,,---,0.00,VWS V14.01,2013-05-26 19:24:00,
2013-05-26 15:25:00,69.9,33.5,30.11,WNW,282,5.0,9.0,26,0.00,,---,0.00,VWS V14.01,2013-05-26 19:25:00,
2013-05-26 15:27:00,69.8,32.4,30.11,NNW,340,6.0,12.0,25,0.00,,---,0.00,VWS V14.01,2013-05-26 19:27:00,
2013-05-26 15:28:00,69.8,31.4,30.11,West,280,10.0,15.0,24,0.00,,---,0.00,VWS V14.01,2013-05-26 19:28:00,
2013-05-26 15:29:00,69.8,33.4,30.11,SSE,165,1.0,5.0,26,0.00,,---,0.00,VWS V14.01,2013-05-26 19:29:00,
2013-05-26 15:30:00,69.8,36.1,30.11,WNW,290,6.0,6.0,29,0.00,,---,0.00,VWS V14.01,2013-05-26 19:30:00,
2013-05-26 15:32:00,69.6,31.2,30.11,WSW,240,5.0,11.0,24,0.00,,---,0.00,VWS V14.01,2013-05-26 19:32:00,
2013-05-26 15:33:00,69.6,31.2,30.11,South,188,3.0,3.0,24,0.00,,---,0.00,VWS V14.01,2013-05-26 19:33:00,
2013-05-26 15:34:00,69.4,31.1,30.11,NW,311,5.0,16.0,24,0.00,,---,0.00,VWS V14.01,2013-05-26 19:34:00,
2013-05-26 15:35:00,69.4,33.1,30.11,NNE,22,4.0,6.0,26,0.00,,---,0.00,VWS V14.01,2013-05-26 19:35:00,
2013-05-26 15:37:00,69.4,31.1,30.11,North,5,8.0,9.0,24,0.00,,---,0.00,VWS V14.01,2013-05-26 19:37:00,
2013-05-26 15:38:00,69.4,30.0,30.11,West,279,9.0,9.0,23,0.00,,---,0.00,VWS V14.01,2013-05-26 19:38:00,
2013-05-26 15:39:00,69.3,31.0,30.11,NW,317,14.0,14.0,24,0.00,,---,0.00,VWS V14.01,2013-05-26 19:39:00,
2013-05-26 15:40:00,69.3,31.0,30.11,NNE,32,3.0,16.0,24,0.00,,---,0.00,VWS V14.01,2013-05-26 19:40:00,
2013-05-26 15:42:00,69.3,32.0,30.11,SW,232,2.0,5.0,25,0.00,,---,0.00,VWS V14.01,2013-05-26 19:42:00,
2013-05-26 15:43:00,69.3,32.0,30.11,NW,312,4.0,4.0,25,0.00,,---,0.00,VWS V14.01,2013-05-26 19:43:00,
2013-05-26 15:44:00,69.3,33.0,30.11,South,169,1.0,3.0,26,0.00,,---,0.00,VWS V14.01,2013-05-26 19:44:00,
2013-05-26 15:45:00,69.4,33.1,30.11,WNW,301,2.0,13.0,26,0.00,,---,0.00,VWS V14.01,2013-05-26 19:45:00,
2013-05-26 15:47:00,69.4,34.0,30.11,West,262,9.0,10.0,27,0.00,,---,0.00,VWS V14.01,2013-05-26 19:47:00,
2013-05-26 15:48:00,69.4,33.1,30.11,NNW,345,1.0,7.0,26,0.00,,---,0.00,VWS V14.01,2013-05-26 19:48:00,
2013-05-26 15:49:00,69.4,33.1,30.11,North,5,3.0,7.0,26,0.00,,---,0.00,VWS V14.01,2013-05-26 19:49:00,
2013-05-26 15:50:00,69.6,34.2,30.11,NNE,26,3.0,12.0,27,0.00,,---,0.00,VWS V14.01,2013-05-26 19:50:00,
2013-05-26 15:52:00,69.6,34.2,30.11,NNW,348,10.0,20.0,27,0.00,,---,0.00,VWS V14.01,2013-05-26 19:52:00,
2013-05-26 15:54:00,69.6,32.2,30.11,West,280,4.0,11.0,25,0.00,,---,0.00,VWS V14.01,2013-05-26 19:54:00,
2013-05-26 15:55:00,69.6,32.2,30.11,NW,313,2.0,8.0,25,0.00,,---,0.00,VWS V14.01,2013-05-26 19:55:00,
2013-05-26 15:57:00,69.6,33.2,30.11,NNW,333,2.0,8.0,26,0.00,,---,0.00,VWS V14.01,2013-05-26 19:57:00,
2013-05-26 15:59:00,69.6,35.1,30.11,NW,317,7.0,7.0,28,0.00,,---,0.00,VWS V14.01,2013-05-26 19:59:00,
2013-05-26 16:01:00,69.4,33.1,30.11,NE,51,5.0,9.0,26,0.00,,---,0.00,VWS V14.01,2013-05-26 20:01:00,
2013-05-26 16:02:00,69.4,33.1,30.10,NNW,347,2.0,4.0,26,0.00,,---,0.00,VWS V14.01,2013-05-26 20:02:00,
2013-05-26 16:04:00,69.4,33.1,30.10,NNW,330,6.0,6.0,26,0.00,,---,0.00,VWS V14.01,2013-05-26 20:04:00,
2013-05-26 16:05:00,69.4,34.0,30.10,North,5,11.0,11.0,27,0.00,,---,0.00,VWS V14.01,2013-05-26 20:05:00,
2013-05-26 16:06:00,69.4,33.1,30.10,NW,315,0.0,11.0,26,0.00,,---,0.00,VWS V14.01,2013-05-26 20:06:00,
2013-05-26 16:08:00,69.4,33.1,30.10,East,85,3.0,10.0,26,0.00,,---,0.00,VWS V14.01,2013-05-26 20:08:00,
2013-05-26 16:09:00,69.3,33.9,30.10,North,355,9.0,12.0,27,0.00,,---,0.00,VWS V14.01,2013-05-26 20:09:00,
2013-05-26 16:10:00,69.3,33.0,30.10,NE,47,9.0,12.0,26,0.00,,---,0.00,VWS V14.01,2013-05-26 20:10:00,
2013-05-26 16:11:00,69.3,33.9,30.10,North,9,7.0,10.0,27,0.00,,---,0.00,VWS V14.01,2013-05-26 20:11:00,
2013-05-26 16:13:00,69.3,33.0,30.10,NW,324,7.0,7.0,26,0.00,,---,0.00,VWS V14.01,2013-05-26 20:13:00,
2013-05-26 16:14:00,69.3,33.9,30.10,NNW,339,2.0,13.0,27,0.00,,---,0.00,VWS V14.01,2013-05-26 20:14:00,
2013-05-26 16:15:00,69.3,33.0,30.10,NNW,332,1.0,13.0,26,0.00,,---,0.00,VWS V14.01,2013-05-26 20:15:00,
2013-05-26 16:16:00,69.3,33.9,30.10,ENE,65,4.0,4.0,27,0.00,,---,0.00,VWS V14.01,2013-05-26 20:16:00,
2013-05-26 16:18:00,69.3,34.8,30.10,SW,234,6.0,6.0,28,0.00,,---,0.00,VWS V14.01,2013-05-26 20:18:00,
2013-05-26 16:19:00,69.3,33.0,30.10,NNE,16,8.0,8.0,26,0.00,,---,0.00,VWS V14.01,2013-05-26 20:19:00,
2013-05-26 16:20:00,69.3,33.0,30.10,WSW,240,0.0,14.0,26,0.00,,---,0.00,VWS V14.01,2013-05-26 20:20:00,
2013-05-26 16:21:00,69.3,34.8,30.10,WNW,296,3.0,3.0,28,0.00,,---,0.00,VWS V14.01,2013-05-26 20:21:00,
2013-05-26 16:23:00,69.3,33.0,30.10,NW,306,3.0,4.0,26,0.00,,---,0.00,VWS V14.01,2013-05-26 20:23:00,
2013-05-26 16:24:00,69.3,35.7,30.10,West,266,1.0,6.0,29,0.00,,---,0.00,VWS V14.01,2013-05-26 20:24:00,
2013-05-26 16:25:00,69.3,33.9,30.10,SW,236,5.0,6.0,27,0.00,,---,0.00,VWS V14.01,2013-05-26 20:25:00,
2013-05-26 16:26:00,69.3,33.9,30.10,WNW,302,7.0,7.0,27,0.00,,---,0.00,VWS V14.01,2013-05-26 20:26:00,
2013-05-26 16:28:00,69.3,33.0,30.10,NW,317,0.0,0.0,26,0.00,,---,0.00,VWS V14.01,2013-05-26 20:28:00,
2013-05-26 16:29:00,69.3,33.0,30.10,West,267,1.0,7.0,26,0.00,,---,0.00,VWS V14.01,2013-05-26 20:29:00,
2013-05-26 16:30:00,69.3,33.9,30.10,NW,312,1.0,1.0,27,0.00,,---,0.00,VWS V14.01,2013-05-26 20:30:00,
2013-05-26 16:31:00,69.3,35.7,30.10,NE,48,4.0,4.0,29,0.00,,---,0.00,VWS V14.01,2013-05-26 20:31:00,
2013-05-26 16:33:00,69.3,34.8,30.10,NNE,23,2.0,3.0,28,0.00,,---,0.00,VWS V14.01,2013-05-26 20:33:00,
2013-05-26 16:34:00,69.3,33.9,30.10,NNE,22,1.0,13.0,27,0.00,,---,0.00,VWS V14.01,2013-05-26 20:34:00,
2013-05-26 16:35:00,69.3,33.9,30.10,West,265,3.0,5.0,27,0.00,,---,0.00,VWS V14.01,2013-05-26 20:35:00,
2013-05-26 16:36:00,69.3,34.8,30.10,West,267,3.0,3.0,28,0.00,,---,0.00,VWS V14.01,2013-05-26 20:36:00,
2013-05-26 16:38:00,69.4,34.0,30.10,West,276,1.0,1.0,27,0.00,,---,0.00,VWS V14.01,2013-05-26 20:38:00,
2013-05-26 16:39:00,69.4,36.7,30.10,NE,39,3.0,5.0,30,0.00,,---,0.00,VWS V14.01,2013-05-26 20:39:00,
2013-05-26 16:40:00,69.4,34.9,30.10,East,94,1.0,2.0,28,0.00,,---,0.00,VWS V14.01,2013-05-26 20:40:00,
2013-05-26 16:41:00,69.4,37.5,30.10,NNW,333,4.0,4.0,31,0.00,,---,0.00,VWS V14.01,2013-05-26 20:41:00,
2013-05-26 16:43:00,69.4,34.9,30.10,WNW,296,0.0,1.0,28,0.00,,---,0.00,VWS V14.01,2013-05-26 20:43:00,
2013-05-26 16:44:00,69.4,37.5,30.10,NNE,22,1.0,2.0,31,0.00,,---,0.00,VWS V14.01,2013-05-26 20:44:00,
2013-05-26 16:45:00,69.4,34.9,30.10,NNW,338,1.0,4.0,28,0.00,,---,0.00,VWS V14.01,2013-05-26 20:45:00,
2013-05-26 16:46:00,69.4,34.9,30.10,WNW,288,4.0,5.0,28,0.00,,---,0.00,VWS V14.01,2013-05-26 20:46:00,
2013-05-26 16:49:00,69.4,34.9,30.09,WSW,241,3.0,6.0,28,0.00,,---,0.00,VWS V14.01,2013-05-26 20:49:00,
2013-05-26 16:50:00,69.4,34.9,30.09,West,272,3.0,15.0,28,0.00,,---,0.00,VWS V14.01,2013-05-26 20:50:00,
2013-05-26 16:51:00,69.4,34.9,30.09,WSW,256,7.0,7.0,28,0.00,,---,0.00,VWS V14.01,2013-05-26 20:51:00,
2013-05-26 16:55:00,69.3,34.8,30.09,NNE,13,0.0,3.0,28,0.00,,---,0.00,VWS V14.01,2013-05-26 20:55:00,
2013-05-26 16:56:00,69.3,36.6,30.09,NNE,13,1.0,1.0,30,0.00,,---,0.00,VWS V14.01,2013-05-26 20:56:00,
2013-05-26 17:00:00,69.3,35.7,30.09,NW,304,2.0,2.0,29,0.00,,---,0.00,VWS V14.01,2013-05-26 21:00:00,
2013-05-26 17:01:00,69.3,34.8,30.09,NNE,18,2.0,3.0,28,0.00,,---,0.00,VWS V14.01,2013-05-26 21:01:00,
2013-05-26 17:05:00,69.1,34.7,30.10,NNW,340,5.0,6.0,28,0.00,,---,0.00,VWS V14.01,2013-05-26 21:05:00,
2013-05-26 17:06:00,69.1,34.7,30.10,NW,304,9.0,10.0,28,0.00,,---,0.00,VWS V14.01,2013-05-26 21:06:00,
2013-05-26 17:10:00,69.1,34.7,30.10,NNE,21,3.0,3.0,28,0.00,,---,0.00,VWS V14.01,2013-05-26 21:10:00,
2013-05-26 17:11:00,68.9,34.5,30.10,NNW,338,3.0,3.0,28,0.00,,---,0.00,VWS V14.01,2013-05-26 21:11:00,
2013-05-26 17:15:00,68.8,34.4,30.10,NNW,344,6.0,6.0,28,0.00,,---,0.00,VWS V14.01,2013-05-26 21:15:00,
2013-05-26 17:16:00,68.8,34.4,30.10,North,360,2.0,2.0,28,0.00,,---,0.00,VWS V14.01,2013-05-26 21:16:00,
2013-05-26 17:20:00,68.8,34.4,30.10,NNW,336,2.0,4.0,28,0.00,,---,0.00,VWS V14.01,2013-05-26 21:20:00,
2013-05-26 17:21:00,68.8,34.4,30.10,NNW,336,0.0,1.0,28,0.00,,---,0.00,VWS V14.01,2013-05-26 21:21:00,
2013-05-26 17:25:00,68.6,34.2,30.10,NNW,344,2.0,5.0,28,0.00,,---,0.00,VWS V14.01,2013-05-26 21:25:00,
2013-05-26 17:26:00,68.6,34.2,30.10,NW,320,1.0,2.0,28,0.00,,---,0.00,VWS V14.01,2013-05-26 21:26:00,
2013-05-26 17:27:00,68.6,34.2,30.10,North,355,2.0,2.0,28,0.00,,---,0.00,VWS V14.01,2013-05-26 21:27:00,
2013-05-26 17:30:00,68.6,34.2,30.10,NNE,31,2.0,2.0,28,0.00,,---,0.00,VWS V14.01,2013-05-26 21:30:00,
2013-05-26 17:31:00,68.6,34.2,30.10,NNW,339,13.0,13.0,28,0.00,,---,0.00,VWS V14.01,2013-05-26 21:31:00,
2013-05-26 17:32:00,68.4,34.0,30.10,NW,308,6.0,13.0,28,0.00,,---,0.00,VWS V14.01,2013-05-26 21:32:00,
2013-05-26 17:35:00,68.4,34.0,30.10,WNW,298,7.0,9.0,28,0.00,,---,0.00,VWS V14.01,2013-05-26 21:35:00,
2013-05-26 17:36:00,68.4,33.1,30.10,North,5,4.0,5.0,27,0.00,,---,0.00,VWS V14.01,2013-05-26 21:36:00,
2013-05-26 17:37:00,68.4,34.0,30.10,North,5,2.0,5.0,28,0.00,,---,0.00,VWS V14.01,2013-05-26 21:37:00,
2013-05-26 17:40:00,68.3,35.7,30.10,ESE,117,0.0,1.0,30,0.00,,---,0.00,VWS V14.01,2013-05-26 21:40:00,
2013-05-26 17:41:00,68.3,34.8,30.10,ESE,119,3.0,3.0,29,0.00,,---,0.00,VWS V14.01,2013-05-26 21:41:00,
2013-05-26 17:42:00,68.3,35.7,30.10,WNW,296,2.0,4.0,30,0.00,,---,0.00,VWS V14.01,2013-05-26 21:42:00,
2013-05-26 17:45:00,68.3,34.0,30.10,NNE,19,4.0,7.0,28,0.00,,---,0.00,VWS V14.01,2013-05-26 21:45:00,
2013-05-26 17:46:00,68.3,34.0,30.10,NNW,327,3.0,4.0,28,0.00,,---,0.00,VWS V14.01,2013-05-26 21:46:00,
2013-05-26 17:47:00,68.3,34.8,30.10,NW,319,7.0,9.0,29,0.00,,---,0.00,VWS V14.01,2013-05-26 21:47:00,
2013-05-26 17:50:00,68.1,33.8,30.10,WNW,302,0.0,11.0,28,0.00,,---,0.00,VWS V14.01,2013-05-26 21:50:00,
2013-05-26 17:51:00,68.1,32.9,30.10,WNW,302,2.0,2.0,27,0.00,,---,0.00,VWS V14.01,2013-05-26 21:51:00,
2013-05-26 17:52:00,68.1,33.8,30.10,West,279,5.0,5.0,28,0.00,,---,0.00,VWS V14.01,2013-05-26 21:52:00,
2013-05-26 17:56:00,68.1,33.8,30.10,North,355,4.0,8.0,28,0.00,,---,0.00,VWS V14.01,2013-05-26 21:56:00,
2013-05-26 17:57:00,68.1,33.8,30.10,North,5,0.0,0.0,28,0.00,,---,0.00,VWS V14.01,2013-05-26 21:57:00,
2013-05-26 18:01:00,67.9,33.6,30.10,WNW,295,2.0,4.0,28,0.00,,---,0.00,VWS V14.01,2013-05-26 22:01:00,
2013-05-26 18:02:00,67.9,34.5,30.10,WNW,301,1.0,1.0,29,0.00,,---,0.00,VWS V14.01,2013-05-26 22:02:00,
2013-05-26 18:06:00,67.8,32.6,30.10,North,360,1.0,2.0,27,0.00,,---,0.00,VWS V14.01,2013-05-26 22:06:00,
2013-05-26 18:07:00,67.8,32.6,30.10,NNW,344,5.0,12.0,27,0.00,,---,0.00,VWS V14.01,2013-05-26 22:07:00,
2013-05-26 18:11:00,67.6,33.4,30.10,NNW,333,5.0,9.0,28,0.00,,---,0.00,VWS V14.01,2013-05-26 22:11:00,
2013-05-26 18:12:00,67.6,33.4,30.10,NE,51,0.0,9.0,28,0.00,,---,0.00,VWS V14.01,2013-05-26 22:12:00,
2013-05-26 18:16:00,67.4,34.1,30.10,NW,311,0.0,1.0,29,0.00,,---,0.00,VWS V14.01,2013-05-26 22:16:00,
2013-05-26 18:17:00,67.4,34.9,30.10,WNW,286,0.0,6.0,30,0.00,,---,0.00,VWS V14.01,2013-05-26 22:17:00,
2013-05-26 18:21:00,67.3,33.1,30.10,NNE,29,1.0,1.0,28,0.00,,---,0.00,VWS V14.01,2013-05-26 22:21:00,
2013-05-26 18:22:00,67.1,33.8,30.10,NNW,345,2.0,5.0,29,0.00,,---,0.00,VWS V14.01,2013-05-26 22:22:00,
2013-05-26 18:26:00,67.1,33.8,30.10,North,355,0.0,0.0,29,0.00,,---,0.00,VWS V14.01,2013-05-26 22:26:00,
2013-05-26 18:27:00,67.1,33.8,30.10,NNE,16,1.0,3.0,29,0.00,,---,0.00,VWS V14.01,2013-05-26 22:27:00,
2013-05-26 18:31:00,66.9,35.3,30.10,NW,310,3.0,3.0,31,0.00,,---,0.00,VWS V14.01,2013-05-26 22:31:00,
2013-05-26 18:32:00,66.9,35.3,30.10,NW,323,2.0,5.0,31,0.00,,---,0.00,VWS V14.01,2013-05-26 22:32:00,
2013-05-26 18:33:00,66.9,34.5,30.10,NNW,341,4.0,4.0,30,0.00,,---,0.00,VWS V14.01,2013-05-26 22:33:00,
2013-05-26 18:36:00,66.8,34.4,30.10,NW,310,4.0,4.0,30,0.00,,---,0.00,VWS V14.01,2013-05-26 22:36:00,
2013-05-26 18:37:00,66.8,33.5,30.10,NW,310,0.0,4.0,29,0.00,,---,0.00,VWS V14.01,2013-05-26 22:37:00,
2013-05-26 18:38:00,66.8,34.4,30.10,NNE,24,6.0,8.0,30,0.00,,---,0.00,VWS V14.01,2013-05-26 22:38:00,
2013-05-26 18:41:00,66.8,34.4,30.10,NE,48,4.0,4.0,30,0.00,,---,0.00,VWS V14.01,2013-05-26 22:41:00,
2013-05-26 18:42:00,66.6,34.2,30.10,NNW,345,6.0,6.0,30,0.00,,---,0.00,VWS V14.01,2013-05-26 22:42:00,
2013-05-26 18:43:00,66.6,33.4,30.10,North,350,4.0,5.0,29,0.00,,---,0.00,VWS V14.01,2013-05-26 22:43:00,
2013-05-26 18:46:00,66.4,34.0,30.10,North,355,0.0,1.0,30,0.00,,---,0.00,VWS V14.01,2013-05-26 22:46:00,
2013-05-26 18:47:00,66.4,34.0,30.10,North,355,0.0,1.0,30,0.00,,---,0.00,VWS V14.01,2013-05-26 22:47:00,
2013-05-26 18:48:00,66.4,34.9,30.11,NNE,24,3.0,5.0,31,0.00,,---,0.00,VWS V14.01,2013-05-26 22:48:00,
2013-05-26 18:51:00,66.4,34.9,30.11,NNW,348,3.0,4.0,31,0.00,,---,0.00,VWS V14.01,2013-05-26 22:51:00,
2013-05-26 18:52:00,66.4,34.9,30.11,WSW,252,1.0,1.0,31,0.00,,---,0.00,VWS V14.01,2013-05-26 22:52:00,
2013-05-26 18:53:00,66.4,34.9,30.11,WNW,282,0.0,0.0,31,0.00,,---,0.00,VWS V14.01,2013-05-26 22:53:00,
2013-05-26 18:56:00,66.3,34.8,30.11,SW,227,2.0,2.0,31,0.00,,---,0.00,VWS V14.01,2013-05-26 22:56:00,
2013-05-26 18:57:00,66.3,34.8,30.11,WSW,245,2.0,3.0,31,0.00,,---,0.00,VWS V14.01,2013-05-26 22:57:00,
2013-05-26 18:58:00,66.3,34.8,30.11,WNW,298,9.0,11.0,31,0.00,,---,0.00,VWS V14.01,2013-05-26 22:58:00,
2013-05-26 19:01:00,66.1,34.6,30.11,North,360,0.0,1.0,31,0.00,,---,0.00,VWS V14.01,2013-05-26 23:01:00,
2013-05-26 19:02:00,66.1,34.6,30.11,WSW,257,0.0,3.0,31,0.00,,---,0.00,VWS V14.01,2013-05-26 23:02:00,
2013-05-26 19:03:00,66.1,34.6,30.11,NW,306,0.0,1.0,31,0.00,,---,0.00,VWS V14.01,2013-05-26 23:03:00,
2013-05-26 19:06:00,66.0,34.5,30.11,WNW,298,3.0,4.0,31,0.00,,---,0.00,VWS V14.01,2013-05-26 23:06:00,
2013-05-26 19:07:00,66.0,35.3,30.11,NW,315,3.0,4.0,32,0.00,,---,0.00,VWS V14.01,2013-05-26 23:07:00,
2013-05-26 19:08:00,66.0,34.5,30.11,NW,315,1.0,1.0,31,0.00,,---,0.00,VWS V14.01,2013-05-26 23:08:00,
2013-05-26 19:11:00,65.8,34.3,30.11,NNE,20,3.0,3.0,31,0.00,,---,0.00,VWS V14.01,2013-05-26 23:11:00,
2013-05-26 19:12:00,65.8,34.3,30.11,NNE,15,3.0,3.0,31,0.00,,---,0.00,VWS V14.01,2013-05-26 23:12:00,
2013-05-26 19:13:00,65.6,34.2,30.11,NW,305,0.0,4.0,31,0.00,,---,0.00,VWS V14.01,2013-05-26 23:13:00,
2013-05-26 19:16:00,65.6,34.2,30.11,NE,35,1.0,5.0,31,0.00,,---,0.00,VWS V14.01,2013-05-26 23:16:00,
2013-05-26 19:17:00,65.6,34.2,30.11,NE,35,2.0,3.0,31,0.00,,---,0.00,VWS V14.01,2013-05-26 23:17:00,
2013-05-26 19:18:00,65.5,34.1,30.11,NE,35,0.0,3.0,31,0.00,,---,0.00,VWS V14.01,2013-05-26 23:18:00,
2013-05-26 19:21:00,65.3,33.9,30.11,NNW,338,1.0,1.0,31,0.00,,---,0.00,VWS V14.01,2013-05-26 23:21:00,
2013-05-26 19:22:00,65.3,33.9,30.11,WSW,250,4.0,7.0,31,0.00,,---,0.00,VWS V14.01,2013-05-26 23:22:00,
2013-05-26 19:23:00,65.3,33.9,30.11,WNW,285,2.0,7.0,31,0.00,,---,0.00,VWS V14.01,2013-05-26 23:23:00,
2013-05-26 19:27:00,65.0,35.2,30.11,NW,325,0.0,0.0,33,0.00,,---,0.00,VWS V14.01,2013-05-26 23:27:00,
2013-05-26 19:28:00,65.0,34.5,30.11,NW,325,1.0,1.0,32,0.00,,---,0.00,VWS V14.01,2013-05-26 23:28:00,
2013-05-26 19:32:00,64.8,35.0,30.11,North,9,0.0,3.0,33,0.00,,---,0.00,VWS V14.01,2013-05-26 23:32:00,
2013-05-26 19:33:00,64.8,34.3,30.11,NNW,346,2.0,5.0,32,0.00,,---,0.00,VWS V14.01,2013-05-26 23:33:00,
2013-05-26 19:37:00,64.7,35.0,30.11,NNW,344,2.0,4.0,33,0.00,,---,0.00,VWS V14.01,2013-05-26 23:37:00,
2013-05-26 19:38:00,64.5,34.0,30.11,NW,323,2.0,6.0,32,0.00,,---,0.00,VWS V14.01,2013-05-26 23:38:00,
2013-05-26 19:42:00,64.3,33.8,30.11,NNW,339,0.0,0.0,32,0.00,,---,0.00,VWS V14.01,2013-05-26 23:42:00,
2013-05-26 19:43:00,64.3,33.8,30.11,NNW,339,0.0,0.0,32,0.00,,---,0.00,VWS V14.01,2013-05-26 23:43:00,
2013-05-26 19:47:00,64.2,36.0,30.11,North,355,3.0,3.0,35,0.00,,---,0.00,VWS V14.01,2013-05-26 23:47:00,
2013-05-26 19:48:00,64.0,35.8,30.11,NNW,336,2.0,3.0,35,0.00,,---,0.00,VWS V14.01,2013-05-26 23:48:00,
2013-05-26 19:52:00,63.9,35.7,30.11,WNW,292,1.0,1.0,35,0.00,,---,0.00,VWS V14.01,2013-05-26 23:52:00,
2013-05-26 19:53:00,63.9,35.7,30.11,WNW,292,4.0,4.0,35,0.00,,---,0.00,VWS V14.01,2013-05-26 23:53:00,
2013-05-26 19:57:00,63.5,34.7,30.11,WNW,288,0.0,3.0,34,0.00,,---,0.00,VWS V14.01,2013-05-26 23:57:00,
2013-05-26 19:58:00,63.5,34.7,30.11,WNW,287,1.0,1.0,34,0.00,,---,0.00,VWS V14.01,2013-05-26 23:58:00,
2013-05-26 19:59:00,63.5,34.7,30.11,WNW,288,0.0,1.0,34,0.00,,---,0.00,VWS V14.01,2013-05-26 23:59:00,
2013-05-26 20:02:00,63.2,35.1,30.12,WNW,284,0.0,2.0,35,0.00,,---,0.00,VWS V14.01,2013-05-27 00:02:00,
2013-05-26 20:03:00,63.2,34.4,30.12,WNW,284,0.0,2.0,34,0.00,,---,0.00,VWS V14.01,2013-05-27 00:03:00,
2013-05-26 20:04:00,63.2,34.4,30.12,WNW,284,0.0,0.0,34,0.00,,---,0.00,VWS V14.01,2013-05-27 00:04:00,
2013-05-26 20:07:00,62.9,34.8,30.12,WNW,284,0.0,2.0,35,0.00,,---,0.00,VWS V14.01,2013-05-27 00:07:00,
2013-05-26 20:08:00,62.9,34.8,30.12,WNW,284,0.0,2.0,35,0.00,,---,0.00,VWS V14.01,2013-05-27 00:08:00,
2013-05-26 20:09:00,62.9,35.6,30.12,WNW,285,0.0,0.0,36,0.00,,---,0.00,VWS V14.01,2013-05-27 00:09:00,
2013-05-26 20:12:00,62.7,36.1,30.12,WNW,285,0.0,0.0,37,0.00,,---,0.00,VWS V14.01,2013-05-27 00:12:00,
2013-05-26 20:13:00,62.6,36.7,30.12,WNW,285,0.0,0.0,38,0.00,,---,0.00,VWS V14.01,2013-05-27 00:13:00,
2013-05-26 20:14:00,62.6,36.7,30.12,WNW,285,0.0,0.0,38,0.00,,---,0.00,VWS V14.01,2013-05-27 00:14:00,
2013-05-26 20:17:00,62.4,36.5,30.13,WNW,285,0.0,0.0,38,0.00,,---,0.00,VWS V14.01,2013-05-27 00:17:00,
2013-05-26 20:18:00,62.4,37.1,30.13,WNW,285,0.0,0.0,39,0.00,,---,0.00,VWS V14.01,2013-05-27 00:18:00,
2013-05-26 20:19:00,62.3,37.0,30.13,WNW,285,0.0,0.0,39,0.00,,---,0.00,VWS V14.01,2013-05-27 00:19:00,
2013-05-26 20:22:00,62.1,36.9,30.13,WNW,285,0.0,0.0,39,0.00,,---,0.00,VWS V14.01,2013-05-27 00:22:00,
2013-05-26 20:23:00,62.1,36.9,30.13,WNW,285,0.0,0.0,39,0.00,,---,0.00,VWS V14.01,2013-05-27 00:23:00,
2013-05-26 20:24:00,62.0,36.1,30.13,WNW,285,0.0,0.0,38,0.00,,---,0.00,VWS V14.01,2013-05-27 00:24:00,
2013-05-26 20:27:00,61.8,36.0,30.13,WNW,285,0.0,0.0,38,0.00,,---,0.00,VWS V14.01,2013-05-27 00:27:00,
2013-05-26 20:28:00,61.6,35.8,30.13,WNW,285,0.0,0.0,38,0.00,,---,0.00,VWS V14.01,2013-05-27 00:28:00,
2013-05-26 20:29:00,61.6,35.8,30.13,WNW,285,0.0,0.0,38,0.00,,---,0.00,VWS V14.01,2013-05-27 00:29:00,
2013-05-26 20:32:00,61.3,35.5,30.13,WNW,285,0.0,0.0,38,0.00,,---,0.00,VWS V14.01,2013-05-27 00:32:00,
2013-05-26 20:33:00,61.3,35.5,30.13,WNW,285,0.0,0.0,38,0.00,,---,0.00,VWS V14.01,2013-05-27 00:33:00,
2013-05-26 20:34:00,61.2,35.4,30.13,WNW,285,0.0,0.0,38,0.00,,---,0.00,VWS V14.01,2013-05-27 00:34:00,
2013-05-26 20:37:00,60.9,35.1,30.13,WNW,285,0.0,0.0,38,0.00,,---,0.00,VWS V14.01,2013-05-27 00:37:00,
2013-05-26 20:38:00,60.9,35.1,30.13,WNW,285,0.0,0.0,38,0.00,,---,0.00,VWS V14.01,2013-05-27 00:38:00,
2013-05-26 20:39:00,60.7,35.0,30.13,WNW,285,0.0,0.0,38,0.00,,---,0.00,VWS V14.01,2013-05-27 00:39:00,
2013-05-26 20:42:00,60.4,35.3,30.13,WNW,285,0.0,0.0,39,0.00,,---,0.00,VWS V14.01,2013-05-27 00:42:00,
2013-05-26 20:43:00,60.2,35.2,30.13,WNW,285,0.0,0.0,39,0.00,,---,0.00,VWS V14.01,2013-05-27 00:43:00,
2013-05-26 20:44:00,60.2,35.2,30.13,WNW,285,0.0,0.0,39,0.00,,---,0.00,VWS V14.01,2013-05-27 00:44:00,
2013-05-26 20:47:00,59.9,34.9,30.14,WNW,285,0.0,0.0,39,0.00,,---,0.00,VWS V14.01,2013-05-27 00:47:00,
2013-05-26 20:48:00,59.8,35.5,30.14,WNW,285,0.0,0.0,40,0.00,,---,0.00,VWS V14.01,2013-05-27 00:48:00,
2013-05-26 20:49:00,59.8,35.5,30.14,WNW,285,0.0,0.0,40,0.00,,---,0.00,VWS V14.01,2013-05-27 00:49:00,
2013-05-26 20:52:00,59.3,35.0,30.14,WNW,285,0.0,0.0,40,0.00,,---,0.00,VWS V14.01,2013-05-27 00:52:00,
2013-05-26 20:53:00,59.3,35.0,30.14,WNW,285,0.0,0.0,40,0.00,,---,0.00,VWS V14.01,2013-05-27 00:53:00,
2013-05-26 20:54:00,59.3,35.0,30.14,WNW,285,0.0,0.0,40,0.00,,---,0.00,VWS V14.01,2013-05-27 00:54:00,
2013-05-26 20:58:00,58.9,35.3,30.14,WNW,285,0.0,0.0,41,0.00,,---,0.00,VWS V14.01,2013-05-27 00:58:00,
2013-05-26 20:59:00,58.7,35.1,30.14,WNW,285,0.0,0.0,41,0.00,,---,0.00,VWS V14.01,2013-05-27 00:59:00,
2013-05-26 21:03:00,58.3,35.3,30.15,WNW,285,0.0,0.0,42,0.00,,---,0.00,VWS V14.01,2013-05-27 01:03:00,
2013-05-26 21:04:00,58.1,35.2,30.15,WNW,285,0.0,0.0,42,0.00,,---,0.00,VWS V14.01,2013-05-27 01:04:00,
2013-05-26 21:08:00,57.6,35.3,30.15,WNW,285,0.0,0.0,43,0.00,,---,0.00,VWS V14.01,2013-05-27 01:08:00,
2013-05-26 21:09:00,57.6,35.3,30.15,WNW,285,0.0,0.0,43,0.00,,---,0.00,VWS V14.01,2013-05-27 01:09:00,
2013-05-26 21:10:00,57.5,35.2,30.15,WNW,285,0.0,0.0,43,0.00,,---,0.00,VWS V14.01,2013-05-27 01:10:00,
2013-05-26 21:13:00,57.2,34.9,30.15,WNW,285,0.0,0.0,43,0.00,,---,0.00,VWS V14.01,2013-05-27 01:13:00,
2013-05-26 21:14:00,57.2,34.9,30.15,WNW,285,0.0,0.0,43,0.00,,---,0.00,VWS V14.01,2013-05-27 01:14:00,
2013-05-26 21:15:00,57.0,34.8,30.15,WNW,285,0.0,0.0,43,0.00,,---,0.00,VWS V14.01,2013-05-27 01:15:00,
2013-05-26 21:18:00,56.7,35.0,30.15,WNW,285,0.0,0.0,44,0.00,,---,0.00,VWS V14.01,2013-05-27 01:18:00,
2013-05-26 21:19:00,56.7,35.6,30.15,WNW,285,0.0,0.0,45,0.00,,---,0.00,VWS V14.01,2013-05-27 01:19:00,
2013-05-26 21:20:00,56.6,35.5,30.15,WNW,285,0.0,0.0,45,0.00,,---,0.00,VWS V14.01,2013-05-27 01:20:00,
2013-05-26 21:23:00,56.2,35.7,30.15,WNW,285,0.0,0.0,46,0.00,,---,0.00,VWS V14.01,2013-05-27 01:23:00,
2013-05-26 21:24:00,56.2,35.7,30.15,WNW,285,0.0,0.0,46,0.00,,---,0.00,VWS V14.01,2013-05-27 01:24:00,
2013-05-26 21:25:00,56.0,36.1,30.15,WNW,285,0.0,0.0,47,0.00,,---,0.00,VWS V14.01,2013-05-27 01:25:00,
2013-05-26 21:28:00,55.7,36.3,30.15,WNW,285,0.0,0.0,48,0.00,,---,0.00,VWS V14.01,2013-05-27 01:28:00,
2013-05-26 21:29:00,55.6,36.2,30.15,WNW,285,0.0,0.0,48,0.00,,---,0.00,VWS V14.01,2013-05-27 01:29:00,
2013-05-26 21:30:00,55.4,36.1,30.15,WNW,285,0.0,0.0,48,0.00,,---,0.00,VWS V14.01,2013-05-27 01:30:00,
2013-05-26 21:34:00,55.1,36.3,30.15,WNW,285,0.0,0.0,49,0.00,,---,0.00,VWS V14.01,2013-05-27 01:34:00,
2013-05-26 21:35:00,55.0,36.7,30.15,WNW,285,0.0,0.0,50,0.00,,---,0.00,VWS V14.01,2013-05-27 01:35:00,
2013-05-26 21:39:00,54.7,36.9,30.15,WNW,285,0.0,0.0,51,0.00,,---,0.00,VWS V14.01,2013-05-27 01:39:00,
2013-05-26 21:40:00,54.5,36.8,30.15,WNW,285,0.0,0.0,51,0.00,,---,0.00,VWS V14.01,2013-05-27 01:40:00,
2013-05-26 21:44:00,54.4,36.7,30.15,WNW,285,0.0,0.0,51,0.00,,---,0.00,VWS V14.01,2013-05-27 01:44:00,
2013-05-26 21:45:00,54.2,36.5,30.15,WNW,285,0.0,0.0,51,0.00,,---,0.00,VWS V14.01,2013-05-27 01:45:00,
2013-05-26 21:49:00,53.9,36.7,30.16,WNW,285,0.0,0.0,52,0.00,,---,0.00,VWS V14.01,2013-05-27 01:49:00,
2013-05-26 21:50:00,53.8,36.6,30.16,WNW,285,0.0,0.0,52,0.00,,---,0.00,VWS V14.01,2013-05-27 01:50:00,
2013-05-26 21:54:00,53.5,35.8,30.16,WNW,285,0.0,0.0,51,0.00,,---,0.00,VWS V14.01,2013-05-27 01:54:00,
2013-05-26 21:55:00,53.5,35.8,30.16,WNW,285,0.0,0.0,51,0.00,,---,0.00,VWS V14.01,2013-05-27 01:55:00,
2013-05-26 21:59:00,53.2,35.6,30.16,WNW,285,0.0,0.0,51,0.00,,---,0.00,VWS V14.01,2013-05-27 01:59:00,
2013-05-26 22:00:00,53.2,35.6,30.16,WNW,285,0.0,0.0,51,0.00,,---,0.00,VWS V14.01,2013-05-27 02:00:00,
2013-05-26 22:04:00,52.9,35.3,30.17,WNW,285,0.0,0.0,51,0.00,,---,0.00,VWS V14.01,2013-05-27 02:04:00,
2013-05-26 22:05:00,52.9,35.3,30.17,WNW,285,0.0,0.0,51,0.00,,---,0.00,VWS V14.01,2013-05-27 02:05:00,
2013-05-26 22:09:00,52.6,36.5,30.17,WNW,285,0.0,0.0,54,0.00,,---,0.00,VWS V14.01,2013-05-27 02:09:00,
2013-05-26 22:10:00,52.6,36.5,30.17,WNW,285,0.0,0.0,54,0.00,,---,0.00,VWS V14.01,2013-05-27 02:10:00,
2013-05-26 22:14:00,52.3,36.2,30.17,WNW,285,0.0,0.0,54,0.00,,---,0.00,VWS V14.01,2013-05-27 02:14:00,
2013-05-26 22:15:00,52.2,36.1,30.17,WNW,285,0.0,0.0,54,0.00,,---,0.00,VWS V14.01,2013-05-27 02:15:00,
2013-05-26 22:19:00,52.0,36.3,30.17,WNW,285,0.0,0.0,55,0.00,,---,0.00,VWS V14.01,2013-05-27 02:19:00,
2013-05-26 22:20:00,51.9,36.7,30.17,WNW,285,0.0,0.0,56,0.00,,---,0.00,VWS V14.01,2013-05-27 02:20:00,
2013-05-26 22:24:00,51.7,37.0,30.17,WNW,285,0.0,0.0,57,0.00,,---,0.00,VWS V14.01,2013-05-27 02:24:00,
2013-05-26 22:25:00,51.7,38.3,30.17,WNW,285,0.0,0.0,60,0.00,,---,0.00,VWS V14.01,2013-05-27 02:25:00,
2013-05-26 22:29:00,51.4,38.8,30.17,WNW,285,0.0,0.0,62,0.00,,---,0.00,VWS V14.01,2013-05-27 02:29:00,
2013-05-26 22:30:00,51.3,38.7,30.17,WNW,285,0.0,0.0,62,0.00,,---,0.00,VWS V14.01,2013-05-27 02:30:00,
2013-05-26 22:34:00,51.1,38.5,30.18,WNW,285,0.0,0.0,62,0.00,,---,0.00,VWS V14.01,2013-05-27 02:34:00,
2013-05-26 22:35:00,51.0,38.5,30.18,WNW,285,0.0,0.0,62,0.00,,---,0.00,VWS V14.01,2013-05-27 02:35:00,
2013-05-26 22:36:00,51.0,38.5,30.18,WNW,285,0.0,0.0,62,0.00,,---,0.00,VWS V14.01,2013-05-27 02:36:00,
2013-05-26 22:39:00,50.8,37.8,30.18,WNW,285,0.0,0.0,61,0.00,,---,0.00,VWS V14.01,2013-05-27 02:39:00,
2013-05-26 22:40:00,50.8,37.8,30.18,WNW,285,0.0,0.0,61,0.00,,---,0.00,VWS V14.01,2013-05-27 02:40:00,
2013-05-26 22:41:00,50.7,37.8,30.18,WNW,285,0.0,0.0,61,0.00,,---,0.00,VWS V14.01,2013-05-27 02:41:00,
2013-05-26 22:44:00,50.5,37.6,30.18,WNW,285,0.0,0.0,61,0.00,,---,0.00,VWS V14.01,2013-05-27 02:44:00,
2013-05-26 22:45:00,50.5,38.0,30.18,WNW,285,1.0,1.0,62,0.00,,---,0.00,VWS V14.01,2013-05-27 02:45:00,
2013-05-26 22:46:00,50.4,37.9,30.18,WNW,285,0.0,1.0,62,0.00,,---,0.00,VWS V14.01,2013-05-27 02:46:00,
2013-05-26 22:49:00,50.2,37.7,30.18,WNW,285,0.0,0.0,62,0.00,,---,0.00,VWS V14.01,2013-05-27 02:49:00,
2013-05-26 22:50:00,50.2,37.7,30.18,WNW,285,0.0,0.0,62,0.00,,---,0.00,VWS V14.01,2013-05-27 02:50:00,
2013-05-26 22:51:00,50.1,38.0,30.18,WNW,285,0.0,0.0,63,0.00,,---,0.00,VWS V14.01,2013-05-27 02:51:00,
2013-05-26 22:54:00,49.9,37.8,30.18,WNW,285,0.0,0.0,63,0.00,,---,0.00,VWS V14.01,2013-05-27 02:54:00,
2013-05-26 22:55:00,49.9,37.8,30.18,WNW,285,0.0,1.0,63,0.00,,---,0.00,VWS V14.01,2013-05-27 02:55:00,
2013-05-26 22:56:00,49.9,37.8,30.18,WNW,285,0.0,1.0,63,0.00,,---,0.00,VWS V14.01,2013-05-27 02:56:00,
2013-05-26 22:59:00,49.6,37.5,30.18,WNW,285,0.0,0.0,63,0.00,,---,0.00,VWS V14.01,2013-05-27 02:59:00,
2013-05-26 23:00:00,49.6,37.5,30.18,WNW,285,0.0,0.0,63,0.00,,---,0.00,VWS V14.01,2013-05-27 03:00:00,
2013-05-26 23:01:00,49.6,37.5,30.18,WNW,285,0.0,0.0,63,0.00,,---,0.00,VWS V14.01,2013-05-27 03:01:00,
2013-05-26 23:04:00,49.4,38.1,30.18,WNW,285,0.0,0.0,65,0.00,,---,0.00,VWS V14.01,2013-05-27 03:04:00,
2013-05-26 23:05:00,49.4,38.1,30.18,WNW,285,0.0,0.0,65,0.00,,---,0.00,VWS V14.01,2013-05-27 03:05:00,
2013-05-26 23:06:00,49.4,38.1,30.18,WNW,285,0.0,0.0,65,0.00,,---,0.00,VWS V14.01,2013-05-27 03:06:00,
2013-05-26 23:09:00,49.2,38.0,30.18,WNW,285,0.0,0.0,65,0.00,,---,0.00,VWS V14.01,2013-05-27 03:09:00,
2013-05-26 23:10:00,49.1,37.9,30.18,WNW,285,3.0,3.0,65,0.00,,---,0.00,VWS V14.01,2013-05-27 03:10:00,
2013-05-26 23:11:00,49.1,37.9,30.18,WNW,285,2.0,2.0,65,0.00,,---,0.00,VWS V14.01,2013-05-27 03:11:00,
2013-05-26 23:15:00,48.9,37.7,30.18,WNW,285,0.0,2.0,65,0.00,,---,0.00,VWS V14.01,2013-05-27 03:15:00,
2013-05-26 23:16:00,48.9,37.7,30.18,WNW,285,2.0,2.0,65,0.00,,---,0.00,VWS V14.01,2013-05-27 03:16:00,
2013-05-26 23:20:00,48.6,36.6,30.18,WNW,285,0.0,1.0,63,0.00,,---,0.00,VWS V14.01,2013-05-27 03:20:00,
2013-05-26 23:21:00,48.6,37.0,30.18,WNW,285,0.0,0.0,64,0.00,,---,0.00,VWS V14.01,2013-05-27 03:21:00,
2013-05-26 23:25:00,48.5,37.7,30.18,WNW,285,0.0,0.0,66,0.00,,---,0.00,VWS V14.01,2013-05-27 03:25:00,
2013-05-26 23:26:00,48.5,38.4,30.18,WNW,285,0.0,0.0,68,0.00,,---,0.00,VWS V14.01,2013-05-27 03:26:00,
2013-05-26 23:30:00,48.5,39.2,30.18,WNW,285,0.0,0.0,70,0.00,,---,0.00,VWS V14.01,2013-05-27 03:30:00,
2013-05-26 23:31:00,48.3,39.0,30.18,WNW,285,0.0,0.0,70,0.00,,---,0.00,VWS V14.01,2013-05-27 03:31:00,
2013-05-26 23:35:00,48.3,39.3,30.19,WNW,285,0.0,0.0,71,0.00,,---,0.00,VWS V14.01,2013-05-27 03:35:00,
2013-05-26 23:36:00,48.2,38.9,30.19,WNW,285,0.0,0.0,70,0.00,,---,0.00,VWS V14.01,2013-05-27 03:36:00,
2013-05-26 23:40:00,48.0,38.7,30.19,WNW,285,0.0,0.0,70,0.00,,---,0.00,VWS V14.01,2013-05-27 03:40:00,
2013-05-26 23:41:00,48.0,38.7,30.19,WNW,285,0.0,0.0,70,0.00,,---,0.00,VWS V14.01,2013-05-27 03:41:00,
2013-05-26 23:45:00,47.9,38.6,30.19,WNW,285,0.0,0.0,70,0.00,,---,0.00,VWS V14.01,2013-05-27 03:45:00,
2013-05-26 23:46:00,47.9,38.6,30.19,WNW,285,0.0,0.0,70,0.00,,---,0.00,VWS V14.01,2013-05-27 03:46:00,
2013-05-26 23:47:00,47.9,39.0,30.19,WNW,285,0.0,0.0,71,0.00,,---,0.00,VWS V14.01,2013-05-27 03:47:00,
2013-05-26 23:50:00,47.7,38.8,30.19,WNW,285,0.0,0.0,71,0.00,,---,0.00,VWS V14.01,2013-05-27 03:50:00,
2013-05-26 23:51:00,47.7,38.8,30.19,WNW,285,0.0,0.0,71,0.00,,---,0.00,VWS V14.01,2013-05-27 03:51:00,
2013-05-26 23:52:00,47.7,38.8,30.19,WNW,285,0.0,2.0,71,0.00,,---,0.00,VWS V14.01,2013-05-27 03:52:00,
2013-05-26 23:55:00,47.6,38.3,30.19,WNW,285,0.0,0.0,70,0.00,,---,0.00,VWS V14.01,2013-05-27 03:55:00,
2013-05-26 23:56:00,47.6,38.0,30.19,WNW,285,0.0,1.0,69,0.00,,---,0.00,VWS V14.01,2013-05-27 03:56:00,
2013-05-26 23:57:00,47.6,38.0,30.19,WNW,285,0.0,1.0,69,0.00,,---,0.00,VWS V14.01,2013-05-27 03:57:00,